GFSWCAN_500_spd_120.txt.gz
Wind_Speed
44 41 38 36 35 33 33 34 30 28 22 20 21 20 19 19 19 19 17 13 14 13 13 13 12 11 11 13 14 15 16 15 14 13 13 13 14 14 15 16 18 19 20 20 21 20 22 23 23 24 22 21 23 23
48 43 40 38 35 34 33 34 32 29 26 23 21 22 23 22 21 21 19 18 17 17 15 15 15 16 16 16 15 14 12 14 12 14 16 18 19 20 21 20 22 21 21 15 15 16 16 15 20 23 22 21 23 25
49 49 43 42 37 36 33 33 34 33 30 28 26 25 23 26 25 23 23 21 19 17 20 21 19 19 18 20 21 19 19 18 17 16 16 18 17 15 16 16 17 23 22 16 15 22 19 22 28 26 27 28 30 33
56 53 47 44 42 40 37 37 36 35 35 33 31 30 27 25 27 28 25 24 25 26 25 23 24 25 26 22 21 21 22 22 22 21 19 17 17 18 17 16 20 28 25 22 21 25 25 31 34 35 34 35 36 38
60 57 53 48 44 43 42 38 37 37 36 35 34 33 32 29 27 28 31 29 29 30 30 30 29 30 33 31 24 23 23 23 23 24 23 22 22 25 21 19 24 33 35 34 33 32 34 35 37 40 42 43 45 46
63 60 60 57 52 48 48 44 39 37 38 39 39 39 37 34 32 32 31 31 32 33 32 31 31 30 30 32 32 32 31 29 29 28 28 26 29 33 31 28 31 34 38 41 43 43 42 42 43 44 46 48 50 51
63 64 63 60 56 53 50 48 45 43 41 41 44 44 43 40 38 37 36 35 36 35 34 34 30 29 32 33 34 35 36 36 36 36 33 33 33 35 35 35 38 39 41 46 50 52 53 52 48 49 51 53 54 54
66 66 65 64 61 56 52 50 49 48 47 46 46 48 48 46 44 43 42 41 41 40 38 38 33 31 33 35 37 39 40 40 40 40 39 38 39 41 43 40 41 42 45 47 47 46 45 47 50 53 55 57 59 60
64 64 64 64 62 58 54 53 52 52 53 53 52 51 51 51 48 47 48 47 45 45 44 39 38 35 34 37 39 40 41 40 43 42 41 38 35 38 37 36 38 44 44 43 44 46 48 50 52 54 55 56 58 59
59 60 63 63 58 59 58 57 56 56 58 59 56 55 53 50 51 52 51 50 50 47 47 43 39 41 41 38 40 42 43 43 44 43 42 42 40 40 41 44 47 47 46 46 47 50 53 56 56 56 56 56 57 59
51 54 53 55 56 58 59 61 63 61 60 59 54 53 55 53 52 54 55 53 52 50 45 41 41 44 44 46 44 45 47 47 49 49 47 48 44 43 45 50 51 53 55 56 57 57 57 58 57 56 57 60 60 61
49 54 57 58 56 54 56 58 58 55 52 52 53 53 54 55 55 55 57 52 47 47 44 40 39 42 46 49 49 51 51 52 53 52 53 52 48 53 57 57 60 62 64 64 63 61 59 59 61 63 63 61 61 60
45 44 41 40 40 41 44 49 52 53 51 51 52 53 54 53 55 55 51 47 45 43 43 42 42 43 44 47 50 51 54 55 56 56 55 53 56 57 60 62 63 64 64 65 64 64 62 60 62 64 63 63 63 63
46 45 45 44 41 40 42 44 46 47 46 47 50 51 51 52 51 49 48 46 47 46 46 47 48 48 48 48 50 51 53 56 58 57 53 57 59 63 63 63 64 65 67 68 67 67 66 63 63 60 58 59 60 60
57 52 55 52 52 50 49 47 45 44 43 44 44 47 48 50 51 50 50 50 51 51 51 51 52 53 53 54 55 56 57 58 57 55 58 60 62 64 65 66 68 70 70 68 68 68 68 68 66 61 58 57 58 59
61 64 63 59 56 55 53 52 51 51 51 50 50 51 52 52 53 54 54 55 55 55 55 57 57 58 58 59 59 61 61 60 57 59 64 67 69 71 73 74 73 71 72 73 72 70 69 67 65 63 59 58 58 57
57 57 57 56 56 56 56 55 55 55 53 53 52 52 53 55 55 56 57 57 58 57 58 59 60 62 63 64 63 63 60 57 62 66 69 73 76 77 73 70 71 73 72 72 72 69 66 64 63 62 59 56 57 56
50 51 52 53 54 55 55 55 56 56 55 54 54 57 57 57 58 59 60 61 61 63 63 64 65 66 68 67 65 63 67 71 74 77 76 73 73 71 69 70 69 70 70 69 68 66 65 63 62 61 60 59 58 57
52 52 51 52 53 53 54 54 54 54 56 55 57 58 59 59 61 61 58 59 61 61 64 66 70 71 67 66 68 70 73 75 75 75 75 71 70 69 69 69 69 69 70 69 68 64 62 62 63 63 63 64 64 61
52 51 52 52 51 52 54 57 57 56 55 52 55 55 55 53 54 54 55 55 55 59 64 68 67 66 69 71 71 71 71 71 72 74 72 70 71 72 71 73 73 69 68 69 67 66 67 67 66 66 67 68 68 64
36 36 37 38 35 39 45 43 43 47 46 46 48 50 50 49 49 50 52 57 60 64 65 64 66 68 69 70 70 70 71 72 74 77 76 77 75 76 76 76 75 74 75 73 73 72 71 70 69 68 66 65 65 63
27 27 27 29 30 32 35 35 37 39 44 46 48 48 51 52 53 55 60 62 64 64 65 66 69 71 72 72 73 75 77 79 81 81 82 82 82 80 80 78 77 75 73 71 69 69 67 64 62 61 59 57 55 53
31 32 33 34 32 33 37 37 39 41 43 45 49 53 54 55 58 60 63 66 65 59 61 66 66 66 70 71 73 74 74 75 77 77 77 76 74 74 72 67 64 61 58 55 56 56 56 52 49 48 46 44 42 40
33 35 37 39 42 43 39 38 37 39 42 46 48 51 50 51 53 55 60 59 54 55 57 58 61 65 67 70 72 72 71 69 69 69 67 67 67 63 59 58 57 53 48 45 44 44 44 39 34 31 31 28 27 32
39 43 46 49 46 42 41 42 46 44 41 42 46 49 50 54 58 60 59 55 56 57 57 56 55 56 60 62 61 60 57 58 58 59 57 58 58 58 56 51 49 44 40 40 42 43 37 32 27 27 20 22 25 27
44 46 47 45 42 42 44 45 47 47 51 54 55 56 59 63 66 68 59 59 55 51 48 47 49 51 52 51 51 48 46 44 46 51 54 51 54 56 53 48 43 38 35 38 41 42 38 30 30 28 26 22 25 26
50 55 50 47 49 46 44 46 45 49 53 57 57 58 62 68 71 68 63 52 47 43 44 44 44 45 46 44 45 48 50 52 55 56 55 55 54 53 53 52 48 41 37 38 41 43 43 35 33 27 24 21 23 28
59 57 52 52 46 41 45 46 48 51 54 55 56 61 66 73 75 62 50 40 37 38 40 41 42 43 48 51 52 52 51 50 51 52 54 54 51 48 48 49 46 42 42 40 42 42 40 36 30 25 24 23 24 29
43 41 44 44 42 46 51 51 52 54 51 53 60 67 68 65 51 41 32 34 34 35 39 41 41 39 36 31 33 37 40 42 44 42 40 38 34 28 37 41 43 42 39 40 40 40 35 34 30 27 27 25 22 28
44 43 44 46 48 49 47 47 49 51 53 57 62 60 51 40 27 31 30 27 31 35 35 34 32 32 32 35 37 38 41 43 44 48 50 49 46 43 44 44 41 38 36 40 38 39 34 30 29 26 29 25 21 27
40 47 50 50 46 44 46 49 50 53 59 54 49 49 40 30 21 19 24 29 37 34 32 32 33 37 44 46 47 48 43 38 41 44 47 46 45 45 44 41 40 39 35 34 36 37 33 32 30 28 24 22 22 25
40 32 30 33 37 39 42 52 53 45 42 40 36 34 27 28 21 19 26 33 40 38 33 34 38 40 43 44 43 42 40 36 40 44 44 43 42 39 43 35 32 29 25 28 33 33 32 29 27 24 21 22 24 23
31 34 36 38 45 41 34 36 38 35 30 28 24 24 24 27 27 27 31 34 40 41 39 40 42 42 40 39 39 36 35 40 40 38 34 31 28 26 28 26 22 20 22 25 27 26 25 24 22 20 22 23 22 19

GFSWCAN_500_spd_123.txt.gz
Wind_Speed
51 47 45 43 40 39 37 34 31 31 26 24 22 21 18 16 16 17 15 12 11 10 10 10 10 8 8 8 7 7 7 8 8 10 11 12 14 15 16 16 16 18 18 19 19 21 22 21 20 21 19 19 21 23
50 50 44 44 43 42 39 36 33 32 29 25 23 21 20 19 18 18 19 17 17 15 13 13 13 12 12 12 11 11 11 10 9 9 10 11 11 13 14 16 17 17 16 14 16 17 17 17 19 18 18 21 24 25
58 51 49 45 45 42 39 38 34 32 30 26 26 24 23 21 20 22 21 21 20 20 18 14 15 16 15 15 16 16 17 17 16 14 14 15 14 15 16 18 19 21 20 19 18 22 22 23 25 25 28 29 30 33
62 56 53 49 47 44 43 41 37 35 33 30 29 29 27 26 24 23 21 23 23 22 22 22 22 22 22 20 22 25 26 23 21 19 17 18 19 18 17 17 20 26 25 24 22 24 25 31 32 33 35 37 38 40
63 61 58 55 53 50 47 46 43 40 37 35 35 32 31 29 26 27 26 24 25 24 24 25 26 26 27 28 27 28 28 26 24 25 25 23 23 26 23 21 25 28 32 33 31 30 30 33 36 38 41 44 47 48
63 64 60 61 58 58 54 52 49 46 43 40 38 37 34 31 31 30 30 30 29 28 27 27 25 27 28 30 31 31 31 30 30 30 31 31 33 34 31 29 35 34 36 37 36 39 40 41 44 44 41 39 38 41
62 65 63 64 65 64 59 55 55 52 47 45 45 41 37 33 34 34 35 34 34 35 33 32 29 28 29 30 31 32 32 33 33 34 34 34 35 37 35 35 38 38 40 41 43 45 45 45 46 44 41 42 45 46
64 64 67 67 66 65 63 61 60 58 53 50 49 47 43 41 38 37 38 39 38 39 39 38 35 32 32 34 35 35 36 37 36 37 35 36 37 38 40 41 41 41 38 37 37 39 39 40 41 41 42 45 50 52
63 64 63 66 67 66 66 66 62 60 57 57 52 51 49 47 45 43 42 42 41 43 45 41 38 39 38 36 37 38 39 41 43 40 39 39 36 38 40 43 42 41 42 43 44 45 46 45 46 48 51 51 53 54
58 60 61 60 63 64 65 65 65 62 61 58 55 55 53 52 51 48 46 46 46 44 45 44 42 44 42 39 38 39 42 43 46 44 43 41 34 37 40 44 44 46 48 50 50 51 52 52 54 57 59 58 57 57
57 56 58 59 61 64 65 64 63 64 62 60 57 57 55 53 54 53 52 51 51 47 46 43 44 44 43 45 41 42 45 46 47 49 48 48 44 44 47 47 48 49 50 52 53 54 55 56 55 54 55 58 60 60
55 53 55 60 61 62 65 64 60 61 58 59 57 56 55 55 57 57 57 53 50 50 47 47 45 43 42 41 41 42 44 47 49 49 50 49 48 49 50 50 51 53 54 53 54 55 56 56 57 58 60 61 63 63
50 46 44 46 53 56 56 51 51 53 50 52 53 55 55 55 56 57 56 53 48 49 48 46 44 43 41 39 39 41 43 44 44 47 47 46 47 47 49 50 52 53 54 55 56 56 58 61 64 66 66 67 66 66
50 47 44 44 48 46 46 38 36 38 44 46 47 50 52 54 55 55 53 51 51 49 47 46 45 44 43 43 44 43 44 44 45 44 44 46 47 50 53 54 56 57 59 60 61 62 65 68 69 69 71 72 72 71
52 46 43 44 44 39 36 38 42 44 42 42 42 46 48 48 48 48 46 44 45 45 45 45 47 48 47 48 47 47 46 47 47 47 48 50 54 57 59 60 59 60 62 64 68 71 72 73 73 72 72 71 71 70
49 49 47 47 47 42 43 43 43 45 44 41 43 44 44 44 45 44 45 44 45 46 47 49 50 51 51 52 53 52 52 51 50 51 55 59 63 64 64 65 65 66 70 73 74 74 75 76 75 72 70 69 69 71
56 54 49 42 41 44 46 47 49 45 44 47 47 46 47 47 48 49 49 49 50 51 52 54 54 54 56 56 54 54 53 52 56 59 62 66 68 68 67 67 70 74 77 77 76 75 75 73 71 70 71 67 66 65
58 58 56 57 57 54 52 51 52 54 56 55 54 53 52 52 52 53 52 52 53 54 57 58 58 57 58 57 55 55 58 61 64 67 69 70 70 71 73 75 76 77 76 75 74 70 70 70 70 70 70 68 66 63
50 52 54 56 57 58 58 58 57 56 54 52 53 53 52 52 54 55 55 56 58 59 60 60 61 60 59 60 62 64 65 68 69 70 72 73 76 79 80 78 75 74 74 73 71 71 73 73 74 75 76 75 74 70
42 44 47 49 50 50 51 52 52 51 50 51 51 51 52 54 54 56 57 58 60 61 61 59 60 61 65 66 68 70 69 70 73 76 76 76 78 79 78 78 78 77 77 75 74 75 76 76 76 76 75 74 73 68
37 38 39 40 43 45 47 47 48 49 50 49 50 49 46 45 45 47 51 56 56 55 53 56 60 63 65 68 69 70 72 73 75 78 79 80 79 81 80 78 76 74 73 73 73 71 71 70 69 65 64 63 62 60
37 36 39 41 41 42 45 46 45 44 44 42 41 40 39 38 38 42 47 51 53 50 53 58 61 64 68 69 71 73 75 78 81 82 81 81 80 78 78 75 73 71 70 68 66 66 64 60 59 55 55 52 49 47
24 25 25 25 25 31 32 36 38 35 33 33 34 36 38 40 43 46 50 51 52 45 52 56 57 60 65 69 72 73 75 77 78 78 77 75 75 75 75 73 72 73 71 66 62 60 57 54 51 46 43 41 40 37
25 27 27 29 28 28 28 28 29 29 31 34 34 34 37 40 43 47 50 50 42 47 52 54 55 61 66 70 71 71 71 68 69 67 67 71 73 70 67 68 66 63 60 58 53 51 49 48 47 45 39 37 32 29
31 35 36 34 31 30 32 30 30 30 31 33 39 42 44 46 49 51 52 46 44 50 53 57 60 63 62 63 62 62 60 60 60 61 60 58 60 59 59 57 55 51 52 51 50 50 45 45 43 43 38 33 33 24
35 37 37 34 33 33 30 30 31 33 35 38 42 43 46 54 58 55 46 45 52 53 62 64 61 59 59 56 56 55 52 51 55 57 50 50 55 57 55 55 52 47 48 51 51 50 46 45 45 41 36 32 33 26
45 49 42 35 36 34 32 35 42 40 38 40 41 44 50 56 59 52 51 56 60 67 62 57 52 49 49 48 49 49 47 41 39 38 34 34 36 39 42 42 39 36 37 39 44 45 44 42 41 37 35 30 31 24
48 52 48 38 34 40 41 43 45 43 43 42 41 44 49 55 59 56 60 62 71 60 49 44 45 47 48 47 45 41 34 35 37 39 40 41 41 42 45 47 45 40 39 35 35 35 33 34 34 33 32 29 25 25
51 43 43 45 44 43 49 49 50 48 41 42 46 50 56 59 61 65 67 71 62 50 48 46 40 34 35 36 36 36 37 39 42 45 46 46 44 40 44 43 42 43 41 37 35 36 33 31 28 30 29 25 24 28
56 55 52 50 49 45 43 42 40 36 41 48 54 57 59 64 65 65 71 55 44 42 36 33 32 32 33 35 34 34 37 42 47 51 51 49 46 39 38 41 42 43 43 42 38 35 30 29 30 27 26 24 25 26
43 44 45 47 42 37 39 42 45 48 50 52 53 59 62 64 70 61 42 33 29 30 33 30 31 37 40 40 41 43 40 44 49 49 50 50 44 43 43 42 42 42 39 37 33 29 25 27 30 26 24 24 23 21
32 34 37 35 33 38 46 49 52 54 52 53 57 60 57 64 51 24 17 23 26 34 34 38 39 43 47 47 47 48 50 44 40 42 43 42 43 43 39 37 35 33 28 20 19 21 24 25 21 19 21 23 20 17
26 27 28 39 45 45 41 42 46 49 51 52 59 51 38 33 28 18 24 32 36 36 39 43 48 50 51 52 45 38 37 36 37 38 38 38 38 36 32 27 23 19 17 18 17 19 20 16 13 15 19 19 17 16

GFSWCAN_500_spd_126.txt.gz
Wind_Speed
49 47 44 44 44 45 42 38 33 29 28 28 27 25 21 18 18 17 15 13 12 12 11 9 8 8 7 6 5 4 4 4 6 8 9 10 10 10 11 11 12 13 15 17 19 21 20 20 19 17 16 15 16 18
53 52 48 46 45 44 43 42 38 32 29 29 28 25 24 20 18 18 17 17 16 15 14 12 13 11 10 9 8 8 7 7 9 10 10 10 11 11 11 12 12 13 13 14 15 14 15 16 17 16 17 21 22 24
57 55 53 50 47 45 46 42 40 36 32 31 30 27 24 23 21 20 20 18 17 18 17 16 15 14 13 14 13 12 11 11 13 15 17 17 16 16 16 15 16 18 17 16 18 18 20 22 21 22 26 27 29 31
61 59 57 55 53 49 45 44 42 41 38 37 34 31 28 26 24 23 23 21 19 18 18 18 19 18 19 19 20 19 19 20 20 20 20 21 22 21 21 19 21 24 21 21 20 24 26 29 29 30 33 35 37 40
65 64 61 59 57 56 51 49 46 43 41 39 38 35 34 31 29 27 25 25 24 20 17 18 19 20 22 23 23 25 26 26 26 25 22 24 25 27 27 26 23 29 29 28 28 29 32 33 34 36 37 42 43 44
69 62 61 61 60 59 57 53 50 47 45 43 43 41 39 36 34 33 30 28 28 27 25 21 19 21 21 22 24 26 26 28 29 29 28 26 28 32 33 31 32 36 35 34 35 37 37 39 40 42 43 41 40 40
64 67 65 61 58 62 59 58 56 53 53 50 46 46 47 43 40 38 37 35 34 32 32 29 25 25 25 26 26 25 27 29 30 32 32 31 33 35 34 33 36 36 37 38 39 41 43 43 42 39 38 39 41 43
61 66 68 67 63 61 61 63 63 60 59 58 54 52 52 50 45 44 43 41 40 38 36 35 30 28 30 29 29 30 31 31 32 33 33 35 37 37 37 35 37 38 39 40 40 40 42 41 41 43 44 45 48 50
64 68 71 66 62 61 61 64 63 64 66 63 61 57 55 55 52 50 47 48 47 45 44 41 38 36 33 32 33 33 35 34 36 35 36 38 38 38 39 39 37 39 39 39 40 41 43 44 45 45 46 48 50 51
64 66 70 67 61 60 58 59 62 64 66 69 67 64 62 60 57 56 54 52 51 50 50 45 41 43 42 38 37 36 38 38 40 38 39 42 41 41 41 40 41 42 43 45 45 47 48 47 47 48 50 51 52 52
67 66 65 66 63 57 55 56 58 62 66 68 66 66 65 64 63 61 58 56 54 53 52 48 44 45 47 46 44 44 42 41 43 44 43 43 41 41 44 46 46 47 48 49 50 50 50 51 51 51 51 53 53 55
66 62 61 62 60 56 53 54 56 59 59 63 66 65 65 65 67 64 58 60 57 56 52 48 46 47 48 48 47 46 43 44 45 44 43 43 38 40 41 42 44 46 47 48 49 49 50 50 52 54 56 58 59 60
66 62 60 56 56 57 54 53 55 57 59 61 61 59 59 60 60 60 58 57 55 51 49 50 50 49 48 47 45 44 44 44 42 44 43 39 38 39 39 41 43 44 45 46 48 50 52 54 55 58 60 63 65 66
63 61 57 54 50 50 52 53 54 58 53 50 47 51 51 52 56 55 53 52 50 49 49 50 49 49 47 46 46 44 43 43 45 43 40 41 40 42 44 45 46 48 49 51 53 55 56 57 59 62 65 68 70 69
61 58 45 47 46 49 46 41 42 44 44 47 47 48 41 38 38 39 40 42 43 47 49 49 50 49 47 46 44 44 42 43 42 42 43 43 45 46 49 50 51 53 55 56 58 60 63 65 66 68 73 75 76 75
49 44 46 48 48 46 43 41 42 44 46 43 48 44 39 36 34 33 36 40 42 42 42 44 44 43 42 43 43 42 43 44 45 46 48 50 51 52 55 58 59 59 60 62 64 66 68 70 73 76 78 80 80 81
49 47 53 55 50 46 44 46 46 47 47 50 43 40 42 38 35 36 37 39 39 40 41 42 42 43 45 46 46 47 47 49 50 50 51 54 57 59 61 62 65 67 68 68 70 74 76 77 79 80 81 80 81 82
53 56 54 51 46 46 48 51 53 50 49 43 39 41 46 46 44 44 44 44 45 45 46 46 46 48 50 51 51 52 53 55 55 55 57 60 62 64 66 67 68 71 73 75 77 78 78 78 81 84 85 85 86 85
55 52 56 56 52 49 48 53 54 50 45 44 46 49 49 48 49 51 52 51 50 51 50 50 52 52 53 55 56 56 57 58 59 60 62 65 67 69 70 71 74 77 80 81 81 81 82 84 86 87 87 86 85 84
53 56 56 56 53 51 53 53 51 49 49 49 51 52 53 53 53 54 53 53 52 52 53 54 55 57 57 56 58 59 60 62 65 67 68 69 70 74 75 77 80 82 83 83 84 84 84 84 82 82 80 79 79 76
43 47 52 54 54 53 52 51 52 51 52 53 53 51 50 50 49 49 50 51 53 54 55 55 55 53 53 55 58 61 64 67 70 74 76 78 76 78 80 82 84 86 84 83 83 82 80 79 76 75 74 70 66 64
37 38 40 42 43 43 43 42 42 41 42 44 45 46 46 47 47 48 49 48 48 45 47 51 52 53 56 58 61 65 68 72 75 77 78 81 82 83 83 83 82 81 80 79 78 78 75 70 66 63 62 61 56 52
27 30 31 33 34 36 37 38 39 40 40 41 40 38 35 34 36 40 42 43 37 34 43 47 49 53 57 61 65 68 70 74 76 80 80 79 80 79 77 74 74 75 72 62 56 54 50 49 49 49 50 50 49 44
29 30 31 32 33 32 33 34 32 32 27 24 22 23 24 27 29 34 39 37 29 35 41 45 50 51 55 60 68 71 71 74 77 75 73 72 68 65 65 64 57 54 52 53 51 48 49 48 48 47 43 41 41 40
19 21 24 24 26 25 25 24 23 21 23 23 23 24 27 30 35 40 40 36 36 42 43 43 45 48 51 58 65 67 63 63 62 60 58 52 54 55 53 51 46 36 34 41 41 44 46 48 49 49 46 41 39 37
19 23 25 25 25 26 26 26 26 25 25 29 31 32 33 38 43 46 44 43 44 43 44 45 45 50 54 59 63 61 53 47 49 49 44 42 43 44 36 32 33 25 42 47 47 45 43 42 43 42 40 40 38 34
29 27 25 26 26 27 28 27 25 27 28 30 32 35 37 40 41 42 42 45 48 52 52 50 54 56 63 65 55 47 45 41 40 39 33 27 30 37 42 42 41 40 46 52 54 53 50 46 41 39 39 34 31 28
34 34 31 29 29 30 30 31 31 33 35 37 37 39 43 44 43 42 45 49 57 62 56 56 55 65 62 50 45 42 34 38 40 43 39 34 39 44 47 49 51 53 55 55 49 46 45 42 37 36 36 32 28 24
40 42 43 42 39 37 38 39 41 42 41 42 46 49 49 50 47 50 51 59 59 56 56 60 63 54 46 41 31 31 38 42 44 44 44 44 44 45 49 52 55 56 55 50 46 48 50 47 41 33 31 27 27 24
47 49 50 51 49 47 45 47 46 48 51 52 52 54 56 56 50 52 57 54 53 59 58 53 46 41 37 29 30 36 42 43 48 50 50 48 48 52 53 53 52 50 48 48 49 46 43 40 36 31 27 27 26 21
45 49 51 50 49 45 43 44 46 49 52 53 52 55 53 50 50 50 50 50 51 42 42 41 41 40 35 37 40 40 41 46 50 48 46 46 47 48 46 45 43 43 45 44 41 37 32 29 27 25 23 26 23 21
34 39 42 43 43 41 42 45 45 46 46 46 43 43 43 47 51 47 44 35 32 38 38 37 36 37 41 44 49 51 50 47 43 40 39 40 43 42 40 39 36 36 35 33 31 27 21 19 20 21 22 20 17 18
15 19 22 24 25 25 28 33 37 39 41 42 43 44 47 51 43 24 21 29 35 35 32 32 37 42 46 50 50 49 47 43 38 37 37 37 36 35 34 30 28 28 28 25 21 18 16 17 18 17 14 14 14 15

GFSWCAN_500_spd_129.txt.gz
Wind_Speed
53 51 49 49 50 49 45 43 40 36 32 28 26 22 21 19 19 17 16 16 17 16 14 12 11 11 10 9 8 7 6 6 8 8 9 9 10 10 11 12 13 14 16 18 19 21 21 21 23 24 23 22 23 24
56 56 52 50 48 47 45 44 42 39 36 33 31 28 24 22 20 19 18 16 16 16 17 16 15 14 14 13 12 11 10 10 9 8 9 10 12 13 15 16 16 17 17 19 19 19 18 18 18 20 20 23 25 26
61 58 58 53 51 48 46 44 44 41 39 37 35 33 30 26 23 22 21 19 19 18 16 16 18 17 17 16 16 16 14 14 13 13 14 15 16 18 19 18 19 20 20 21 21 22 22 23 22 24 27 29 30 32
68 61 61 61 56 52 51 47 46 45 43 40 37 36 35 31 28 25 24 23 22 22 19 18 17 19 19 20 19 19 19 20 21 20 19 20 21 21 23 23 22 23 24 24 25 26 28 26 27 29 30 32 35 37
67 68 67 62 61 57 54 52 50 48 47 43 40 39 39 37 35 31 28 27 26 24 22 21 18 18 20 21 23 23 24 25 25 25 26 25 23 26 25 26 22 29 28 30 28 31 34 33 34 36 37 38 39 42
64 67 68 66 61 60 59 55 53 51 50 49 45 42 41 40 38 37 34 31 29 28 27 25 24 24 23 23 24 24 25 25 27 27 27 25 27 30 30 26 26 31 33 35 36 39 39 40 41 42 43 44 44 43
62 63 68 68 66 63 61 59 57 55 55 54 53 49 46 44 42 39 39 37 35 34 34 32 27 25 26 27 28 28 29 29 29 28 26 27 27 31 29 27 30 33 35 38 39 40 40 41 43 43 44 43 42 43
65 62 64 65 67 67 65 62 61 60 59 58 58 57 54 50 47 44 42 41 42 42 41 41 34 28 29 31 30 31 32 33 33 34 32 32 34 34 31 29 32 34 37 38 39 40 40 41 42 43 44 45 46 48
71 67 65 63 62 67 69 64 63 64 62 62 61 62 61 57 55 51 50 48 47 46 48 47 42 38 36 36 37 37 38 37 39 38 37 40 38 35 35 35 35 37 39 40 41 41 42 42 43 45 47 48 50 52
75 72 67 63 62 61 63 63 61 64 62 62 64 66 64 61 62 61 61 56 54 52 52 51 46 47 45 43 42 42 43 41 43 41 41 43 41 37 40 41 40 41 41 42 44 46 48 50 51 52 53 53 53 53
77 74 71 68 65 62 62 64 60 55 58 65 65 67 66 66 64 65 65 62 60 57 55 54 52 52 49 49 48 50 50 48 49 48 46 47 43 39 42 43 44 44 46 48 50 51 51 51 51 50 50 51 53 54
80 76 74 71 67 65 64 63 63 60 56 59 57 60 62 62 64 65 63 64 63 63 60 57 54 53 53 52 53 54 52 53 53 51 49 48 42 41 41 42 42 44 46 49 49 49 48 48 48 49 51 53 56 60
79 77 75 72 69 66 65 63 65 62 56 54 57 56 56 58 63 65 67 63 59 56 58 59 56 56 54 53 53 53 54 55 53 53 51 45 43 42 42 42 43 44 44 46 47 48 48 49 51 52 54 58 60 62
78 78 75 72 70 68 65 62 56 53 52 53 57 59 59 59 62 59 58 55 55 55 56 55 55 51 49 48 51 53 54 54 54 52 48 46 45 44 44 43 44 44 45 47 48 49 51 53 55 59 62 64 66 68
71 76 74 73 71 67 64 58 54 55 57 59 59 60 59 55 55 54 51 52 51 49 46 45 45 42 41 45 47 48 49 51 50 47 45 44 45 45 46 46 47 47 48 50 51 53 56 59 62 63 66 68 72 74
58 64 73 72 68 64 60 51 54 56 59 57 58 55 53 53 52 52 42 38 34 32 31 32 35 37 40 42 43 45 45 45 43 42 43 44 44 46 47 48 49 51 52 54 57 60 62 64 67 69 72 75 78 81
49 57 67 65 61 56 54 57 55 58 57 57 55 51 50 53 51 50 46 39 33 32 31 31 33 34 36 39 39 39 40 42 43 44 45 47 48 50 51 54 56 57 59 61 63 66 69 71 74 78 80 83 86 87
42 49 54 56 55 58 59 58 59 61 59 54 49 47 47 46 45 44 41 43 42 39 37 36 36 37 38 40 41 43 45 46 47 48 49 52 54 56 57 58 61 65 66 68 70 72 75 79 82 85 86 86 89 90
43 48 48 54 58 54 57 58 62 59 53 49 46 47 48 47 45 42 40 41 43 45 45 45 46 44 46 45 47 48 49 50 51 52 54 57 59 61 62 64 66 68 71 72 75 78 82 84 86 87 89 91 92 92
50 52 49 55 54 57 59 60 57 54 51 50 50 50 50 47 46 47 47 46 44 45 47 48 49 51 51 50 49 50 51 54 56 57 59 61 62 64 65 67 69 72 75 79 81 84 87 88 86 87 88 89 89 88
58 58 50 60 62 60 60 58 56 54 52 52 53 54 54 53 51 52 52 50 49 49 49 50 50 49 49 51 52 53 56 58 60 60 61 63 64 68 70 72 75 79 83 86 90 89 90 91 90 87 86 84 79 76
37 42 46 53 56 58 57 56 59 56 53 55 53 52 52 51 51 51 50 51 50 48 48 49 49 50 51 51 52 55 57 59 61 63 65 69 71 74 77 79 82 85 87 87 87 87 85 80 76 72 67 62 58 57
36 39 42 44 47 48 48 49 49 51 52 51 49 49 49 48 47 47 47 45 42 44 47 47 47 48 48 50 51 52 53 58 62 68 72 73 76 78 80 84 85 84 83 80 76 75 70 61 54 50 47 46 46 45
34 36 36 37 39 39 41 40 42 43 42 42 43 43 44 43 44 45 43 38 36 39 41 43 43 44 46 46 47 51 55 62 67 74 76 75 76 78 81 79 70 61 57 62 57 51 47 45 44 47 49 50 49 49
20 23 26 29 32 33 33 36 36 36 37 39 39 40 40 39 39 40 38 29 27 35 39 40 42 43 47 49 51 52 55 63 69 72 68 65 68 68 60 50 45 42 42 45 43 41 42 46 49 50 51 51 49 47
25 26 26 27 29 31 32 33 32 29 27 26 25 26 25 29 34 36 31 27 35 38 39 39 42 46 47 49 54 54 56 57 62 64 57 52 48 44 41 41 37 29 44 49 50 48 47 48 50 53 52 46 43 42
18 20 21 21 21 21 20 21 22 23 23 24 25 28 31 35 37 35 32 35 38 37 36 39 42 46 49 51 52 52 52 54 57 53 44 30 29 37 44 47 45 45 48 53 55 54 51 52 52 53 48 41 41 43
23 22 20 17 17 20 22 24 27 31 33 34 35 37 39 41 38 35 37 38 39 43 43 44 49 49 56 58 53 53 55 46 38 35 29 24 34 41 47 52 52 53 57 56 56 56 55 56 54 51 49 45 42 41
30 28 29 31 30 26 23 25 25 28 30 33 35 36 36 36 35 35 39 42 43 44 49 51 50 54 57 55 56 54 38 31 31 31 35 35 37 43 50 52 53 53 54 51 48 50 51 52 53 54 49 40 35 32
41 42 41 39 37 34 31 32 34 35 36 39 39 40 40 39 40 42 44 44 46 52 52 53 56 59 58 57 51 43 34 33 36 40 44 45 50 49 48 49 49 48 50 49 47 45 45 50 50 43 38 32 26 24
45 47 47 46 43 40 39 41 43 44 45 46 46 46 45 46 46 47 47 50 49 46 52 54 58 56 46 38 40 38 36 38 44 47 52 57 51 45 46 45 45 46 47 45 42 40 41 40 37 32 27 23 18 18
49 46 45 44 42 42 46 48 49 49 49 51 52 53 54 54 54 50 43 39 42 44 46 50 45 36 37 35 35 37 40 41 47 54 54 49 46 44 42 43 42 41 38 35 33 35 33 30 27 23 19 18 15 13
23 26 30 32 32 33 32 35 37 38 37 35 32 30 28 30 34 30 22 23 28 35 38 35 33 32 31 33 37 41 46 50 47 45 44 44 44 41 39 34 31 30 28 28 30 28 23 22 21 13 9 11 13 12

GFSWCAN_500_spd_132.txt.gz
Wind_Speed
50 49 47 45 44 42 46 47 42 39 37 34 31 28 25 22 21 20 20 18 16 14 13 12 11 10 10 10 10 8 7 6 8 8 8 7 8 8 9 10 11 12 13 14 16 17 19 20 22 24 25 27 29 29
54 52 50 48 46 43 42 45 47 44 42 38 36 33 29 26 24 23 22 21 18 17 15 14 15 14 13 14 13 12 12 12 10 9 9 10 10 11 12 14 15 17 17 20 21 22 22 24 25 26 25 25 27 28
60 56 53 52 51 47 45 44 46 47 46 44 41 38 33 32 28 26 25 24 22 20 19 18 16 16 17 17 16 16 16 15 16 15 15 15 15 15 16 17 18 18 20 19 21 21 22 21 22 25 27 29 29 31
68 64 61 55 55 53 50 47 45 45 45 43 43 41 39 35 32 29 29 27 25 24 20 21 19 19 18 19 20 20 19 20 19 19 20 21 21 21 21 20 21 23 24 24 25 24 25 24 27 28 29 32 34 37
68 67 65 61 58 56 55 52 49 48 47 45 45 44 43 39 35 33 32 32 29 28 25 22 21 20 18 17 20 22 23 24 25 25 25 25 25 28 25 23 20 28 26 28 27 28 30 30 32 33 35 38 40 42
69 69 70 65 61 60 58 57 55 52 50 50 49 46 45 44 42 38 37 37 35 33 30 27 24 23 23 22 23 22 23 24 24 23 24 24 26 30 28 22 23 28 32 32 33 35 34 36 37 39 40 41 42 44
69 69 69 66 64 61 63 58 56 57 55 53 52 51 48 45 43 42 42 39 38 38 36 34 29 25 25 25 25 26 26 27 28 28 27 28 29 31 28 23 27 30 32 35 37 39 40 41 43 43 44 46 47 47
70 67 64 62 62 61 63 65 59 57 57 56 56 55 53 51 49 47 45 45 42 40 39 39 35 30 31 31 30 29 29 29 29 31 29 30 32 34 29 29 31 32 33 35 38 40 42 43 45 46 48 49 49 51
71 69 67 64 63 62 59 60 60 59 58 57 56 55 57 55 54 50 50 50 49 46 45 44 40 36 35 36 36 36 37 36 38 38 37 40 37 33 35 35 35 35 36 37 39 41 43 45 47 48 50 51 52 54
75 72 69 67 65 63 58 57 59 58 60 62 61 59 60 57 57 56 56 55 53 52 52 51 48 45 43 42 42 43 44 44 46 44 44 45 40 37 41 42 42 42 42 43 45 46 47 48 49 51 53 55 56 57
78 76 74 71 69 66 63 61 59 56 58 61 65 63 58 57 57 60 59 59 58 57 56 55 54 52 50 50 48 48 49 51 52 52 51 52 45 42 43 45 47 47 47 47 48 49 49 50 51 52 53 53 54 53
77 78 77 73 71 70 68 65 65 62 63 59 57 57 51 51 55 58 62 63 62 62 61 57 51 51 54 55 55 55 53 54 56 56 56 55 51 48 47 47 48 48 49 48 48 48 48 49 49 50 50 52 53 53
74 76 76 76 74 72 71 68 67 67 64 63 59 58 53 53 55 58 61 61 58 52 52 53 56 59 58 57 57 56 58 60 59 60 61 59 54 52 50 50 49 49 49 49 48 48 48 49 50 51 52 54 55 56
71 73 76 77 76 74 73 71 70 68 65 65 62 62 62 59 57 59 53 49 48 47 47 50 53 56 55 54 54 54 56 57 60 60 57 54 54 52 50 50 50 49 49 48 47 48 48 49 50 52 55 56 58 61
64 70 75 77 75 74 73 73 71 66 69 69 60 63 66 59 52 50 49 47 47 48 51 50 51 50 48 48 49 48 46 50 51 49 49 50 51 50 49 48 46 46 45 45 46 46 48 50 52 55 59 61 64 66
56 66 73 70 71 71 71 71 72 67 66 67 67 64 57 59 55 53 50 46 46 48 48 48 47 46 44 42 39 37 40 42 42 45 47 47 45 44 42 42 42 44 45 47 48 51 54 56 59 61 64 67 70 73
52 59 58 61 64 63 65 68 72 68 70 68 63 55 53 54 56 52 49 50 52 51 50 43 38 32 32 35 37 36 36 36 37 37 38 39 40 41 42 44 46 48 50 52 54 57 59 62 65 68 70 72 75 78
43 42 46 54 58 60 63 64 64 65 71 70 62 55 56 56 53 52 53 53 51 51 48 41 42 42 41 39 37 35 35 37 37 38 39 40 42 44 46 48 51 53 55 58 60 62 65 68 71 73 75 78 82 87
37 43 49 54 56 60 65 68 68 75 75 67 56 57 59 60 56 55 54 54 53 51 48 45 44 50 46 45 44 43 43 44 43 43 45 46 47 49 51 53 55 58 60 62 64 66 68 71 75 79 83 87 91 95
23 35 45 49 54 62 67 70 67 69 69 61 56 60 59 59 57 54 52 52 52 52 50 46 44 44 43 46 48 48 49 49 50 51 51 52 53 54 56 58 60 62 63 64 66 69 73 77 82 87 91 94 95 90
27 33 39 44 52 60 65 65 65 66 61 61 62 63 60 59 55 52 51 48 49 49 47 47 49 52 48 46 46 49 51 53 53 53 53 53 56 59 60 62 64 64 66 69 72 76 82 87 91 93 92 87 81 74
39 41 39 51 60 67 65 53 64 59 61 63 62 58 57 55 54 51 49 48 47 48 51 53 53 52 52 51 50 52 54 54 55 55 57 58 58 60 62 64 66 69 73 76 81 87 90 91 88 84 78 69 60 51
55 51 47 54 68 67 69 64 63 62 66 65 59 58 57 54 53 53 52 50 49 51 52 53 53 52 51 51 51 51 52 55 56 57 58 58 60 62 65 68 72 77 80 83 85 86 85 80 73 67 57 49 47 47
43 64 65 66 61 57 54 58 56 53 52 55 55 55 54 53 53 53 51 49 49 49 51 51 51 50 50 50 49 48 49 53 54 57 58 60 64 66 70 74 78 77 78 81 79 75 68 62 57 55 52 52 53 53
37 41 45 47 41 43 46 50 47 48 48 47 51 52 50 48 48 48 46 46 46 48 49 49 48 48 47 46 46 45 47 52 56 58 58 63 67 72 75 74 73 67 58 62 61 59 54 51 53 54 56 54 53 54
31 34 37 40 40 41 41 42 41 40 41 43 44 43 43 44 44 42 37 37 42 45 45 44 42 40 42 42 43 46 50 55 59 62 61 66 68 71 70 67 61 46 43 52 52 52 51 52 54 54 52 50 51 53
19 21 22 23 25 30 32 33 33 33 33 33 33 34 37 37 37 34 32 36 37 38 37 35 36 38 41 44 48 51 54 59 63 65 66 61 59 61 59 52 45 39 39 46 53 57 55 54 54 51 48 45 47 48
19 19 19 20 22 23 22 22 23 24 25 28 29 30 31 30 28 28 31 31 30 32 35 38 40 44 48 50 52 55 57 58 56 58 57 56 54 47 44 43 41 41 48 55 57 58 60 59 56 53 52 50 47 46
19 16 16 16 14 12 11 11 13 17 21 22 24 25 26 25 27 30 32 34 37 39 40 40 41 45 51 53 55 55 52 52 55 54 51 45 38 35 42 41 43 47 56 56 56 58 59 58 55 53 52 50 46 42
21 20 21 21 19 17 18 20 21 21 21 22 23 23 23 25 30 34 36 37 39 42 42 43 44 46 48 49 50 47 49 47 45 43 39 32 27 29 36 43 50 53 54 55 54 54 53 53 51 47 44 43 41 35
32 28 27 27 27 28 29 30 30 30 29 29 31 31 32 31 29 30 33 36 39 41 43 46 49 47 46 47 48 43 36 36 37 36 34 34 38 43 46 47 50 52 53 53 51 48 46 41 40 37 37 35 29 21
36 35 36 36 35 36 37 37 35 33 32 32 32 35 38 41 40 34 35 37 40 42 43 44 44 42 42 38 33 33 31 29 31 35 40 45 47 47 47 49 49 48 44 39 36 35 35 34 32 32 33 25 18 13
35 37 39 42 43 41 40 39 38 37 37 39 40 39 37 35 33 31 33 39 42 44 43 41 38 31 29 28 27 28 30 33 37 41 43 42 43 45 46 39 35 33 33 32 30 29 29 30 29 28 25 17 14 12

GFSWCAN_500_spd_135.txt.gz
Wind_Speed
56 53 50 47 46 45 45 46 48 44 40 35 32 30 28 24 22 20 19 18 17 15 13 12 11 11 10 9 8 6 4 3 4 6 6 6 6 6 7 8 9 10 11 12 14 15 16 17 19 20 22 24 26 28
59 56 55 53 51 47 44 44 45 45 46 44 37 34 31 28 28 23 21 22 20 19 16 14 13 12 13 13 13 12 10 9 8 7 8 9 10 11 12 13 14 14 16 17 19 20 20 22 24 26 28 29 28 29
63 61 58 56 54 51 48 45 43 42 42 44 43 40 38 33 33 31 27 24 23 22 20 17 15 15 14 14 15 16 15 14 12 12 12 12 12 11 12 13 14 17 20 20 21 21 23 23 25 26 27 27 29 30
68 66 62 62 55 52 51 49 46 43 41 41 42 43 43 39 35 32 29 28 26 24 23 22 19 17 16 16 15 16 17 18 16 17 16 16 17 17 18 17 17 21 21 22 23 24 25 25 29 29 30 32 33 35
74 71 68 65 59 56 53 52 49 47 45 44 43 42 41 38 36 34 32 31 29 28 26 24 22 20 18 18 17 16 15 17 17 18 19 19 20 21 19 18 18 25 24 25 23 26 28 30 32 33 35 37 39 41
80 75 72 67 68 64 59 56 52 52 48 47 46 44 42 40 39 37 36 34 31 32 31 28 27 26 23 22 21 20 20 19 17 17 16 16 19 20 14 13 20 25 26 26 27 28 31 33 35 37 39 40 42 44
63 71 79 74 68 65 66 61 59 57 53 49 48 49 46 44 43 42 40 37 36 34 35 33 30 29 29 28 27 25 24 23 22 22 20 21 24 24 20 20 25 26 29 30 32 34 35 37 38 40 42 44 46 48
59 58 63 75 72 70 69 65 60 56 56 55 50 48 47 45 47 45 45 43 41 38 37 37 31 30 33 34 33 32 30 29 28 28 25 26 27 28 24 26 27 30 32 34 36 36 37 39 41 43 45 47 49 51
65 61 61 62 63 61 60 64 64 56 55 54 55 54 53 49 46 46 47 47 46 45 44 41 37 33 34 35 35 33 34 34 35 34 35 36 35 33 34 35 34 34 34 36 37 40 42 44 45 46 48 50 51 53
65 67 65 65 64 62 61 62 64 60 54 51 54 60 58 49 48 47 49 50 51 50 49 47 44 42 40 40 41 42 41 40 41 41 42 42 40 39 41 42 43 42 42 42 42 43 44 45 47 48 50 52 53 55
67 68 69 66 65 65 64 60 59 54 53 54 54 59 61 51 50 50 51 53 54 54 53 52 49 45 43 44 44 45 47 47 47 48 48 48 44 44 44 46 48 49 49 49 49 48 48 48 48 49 50 52 54 54
67 68 69 69 67 65 65 63 60 59 58 54 51 53 54 52 47 47 58 60 57 56 53 46 44 46 48 49 50 50 50 50 53 52 53 52 51 50 49 50 52 53 53 52 52 52 51 51 51 52 53 53 54 53
64 66 67 69 69 68 68 67 67 70 67 64 58 59 53 55 56 62 63 64 58 50 42 41 45 46 46 47 49 49 51 54 54 56 57 55 53 52 53 54 53 54 54 53 52 52 51 51 51 51 52 53 52 51
60 64 66 67 68 68 67 68 70 68 68 67 67 65 70 64 65 66 59 50 48 44 39 40 39 41 42 42 44 44 47 49 54 54 50 47 49 51 52 53 52 53 53 52 50 49 48 48 47 47 48 48 50 51
55 58 61 64 66 67 66 67 69 69 70 71 72 74 73 68 63 60 59 54 48 46 38 39 40 41 41 41 41 43 45 48 48 44 44 45 46 47 49 50 51 50 49 48 46 45 44 43 44 47 50 52 55 57
49 52 53 56 59 62 63 64 67 69 71 72 73 72 69 67 60 58 55 52 49 51 43 41 40 42 42 43 44 45 46 45 42 42 44 45 46 47 48 49 49 48 46 44 43 42 43 46 48 50 54 57 60 63
46 43 45 49 52 57 60 62 65 69 71 74 74 72 69 66 60 56 55 53 49 47 47 47 45 44 46 48 47 47 46 40 40 42 44 44 46 46 45 44 44 43 42 42 43 45 47 50 53 56 58 62 65 67
43 44 45 48 54 57 60 63 65 67 70 71 71 68 67 64 61 60 55 54 52 47 48 50 50 50 49 48 46 40 39 40 42 44 44 44 43 42 41 42 43 43 44 46 48 50 53 57 60 62 64 67 68 71
41 43 45 50 56 58 58 60 64 67 67 65 64 64 65 62 60 58 58 53 50 50 52 52 53 50 49 47 45 45 45 47 49 49 48 47 46 46 47 48 49 50 52 53 54 57 59 62 64 67 68 71 73 78
37 41 44 49 54 58 57 59 59 64 64 61 61 61 61 60 60 61 57 53 53 53 54 56 52 49 51 52 48 44 46 48 48 50 49 50 52 53 52 52 53 54 55 56 58 61 62 64 67 69 72 77 83 87
32 33 30 40 50 56 58 59 60 63 60 58 57 58 59 58 62 63 56 56 57 56 53 50 54 56 54 52 49 48 47 46 48 48 47 47 48 50 53 56 57 57 59 61 62 64 66 69 71 76 81 85 89 90
27 34 35 32 43 48 51 55 59 60 60 58 61 63 60 59 61 62 55 56 55 54 56 54 55 52 49 48 46 47 48 48 49 51 51 53 55 55 56 58 58 59 61 63 65 66 70 76 79 83 87 87 85 79
37 49 50 39 28 32 39 45 50 53 56 59 61 61 63 59 57 55 57 55 56 54 53 53 53 51 47 47 48 52 53 52 51 51 52 54 56 57 58 59 60 61 63 65 69 72 76 80 82 82 80 78 74 70
38 55 60 54 37 30 31 38 43 46 52 50 54 54 48 56 59 59 56 53 55 53 52 52 51 51 51 50 50 53 53 52 52 52 54 55 56 58 59 59 61 64 68 71 75 79 82 77 74 73 69 68 64 58
35 43 48 43 44 44 52 39 36 44 47 50 54 61 61 53 57 61 62 58 55 55 54 51 48 48 48 48 50 52 54 55 54 52 55 56 58 59 59 61 64 70 73 76 79 78 75 70 64 60 58 60 62 58
24 34 38 43 27 30 20 26 35 38 40 46 49 55 55 53 50 48 48 49 50 50 49 48 50 50 47 48 50 51 50 52 53 53 53 55 56 60 63 66 69 71 70 74 73 70 65 59 55 56 60 61 62 59
17 24 30 37 40 32 25 24 24 24 26 29 32 37 42 41 38 38 42 43 43 43 44 45 44 42 42 43 43 47 50 52 54 56 55 54 58 63 68 73 73 72 71 69 64 60 55 55 55 58 61 61 61 59
15 18 18 18 20 25 27 31 27 28 31 32 31 30 28 28 28 32 34 35 36 37 37 38 39 40 41 44 47 50 52 54 56 57 57 58 62 65 68 69 69 67 61 54 50 49 51 55 59 60 61 61 59 56
7 9 12 13 16 17 19 18 18 18 19 19 20 21 23 26 29 31 32 33 35 36 38 39 40 43 46 47 49 51 53 55 58 59 61 63 61 59 61 59 53 49 45 43 45 52 56 58 58 57 56 54 48 43
9 11 13 13 12 12 12 14 14 15 16 18 21 21 22 25 27 29 30 31 32 34 37 42 45 46 47 50 50 52 54 55 56 56 58 57 55 54 50 42 38 41 46 49 51 50 51 53 49 46 43 40 38 38
21 20 18 18 20 22 23 23 22 22 22 21 21 23 25 26 27 29 30 33 34 36 38 42 46 48 48 48 49 48 44 47 50 53 53 50 44 34 34 38 41 44 45 46 46 45 43 41 40 37 35 34 35 35
27 28 26 25 26 27 26 26 26 26 27 27 26 25 26 30 32 34 36 40 44 45 47 48 48 47 47 45 45 46 48 48 45 41 35 32 32 34 37 40 41 42 42 38 36 35 35 34 33 30 30 31 27 25
22 24 26 27 28 29 30 30 30 29 29 30 30 30 31 32 31 35 38 43 44 41 38 38 38 38 38 38 36 33 31 29 27 28 30 30 32 35 38 38 37 31 27 27 29 31 32 30 27 26 26 22 20 17

GFSWCAN_500_spd_138.txt.gz
Wind_Speed
52 49 48 45 43 40 41 46 45 46 46 41 36 34 31 26 23 19 18 17 16 15 13 11 8 7 8 9 7 6 5 4 3 4 3 3 3 4 4 5 6 6 7 8 9 11 12 14 16 18 18 20 23 25
57 54 52 51 48 47 42 42 42 43 44 48 42 40 37 31 28 25 21 20 20 20 16 13 11 9 7 8 9 10 9 8 8 6 6 7 8 8 8 9 9 10 11 13 14 16 17 20 22 23 25 27 29 30
62 61 59 56 54 52 47 44 42 41 40 42 43 45 41 38 34 31 27 24 24 24 21 17 13 12 11 9 8 10 11 11 11 10 10 10 9 9 9 9 11 13 15 16 17 20 22 23 24 25 26 27 28 30
69 65 64 62 59 56 52 49 47 45 45 43 42 41 42 42 39 37 34 32 28 24 24 22 18 15 14 12 10 9 9 11 13 13 13 15 14 14 13 13 15 19 19 19 19 23 25 28 29 29 30 31 33 34
68 70 68 67 63 61 58 54 51 49 49 47 44 41 39 39 38 38 39 38 31 27 24 23 22 19 16 15 15 15 14 12 11 13 15 16 16 17 18 16 21 23 22 21 19 22 22 25 27 29 31 33 35 37
72 74 71 67 66 63 61 59 55 51 50 48 47 46 43 40 38 37 37 37 33 29 28 25 25 25 23 21 21 21 20 18 16 16 15 16 18 14 12 14 22 21 21 21 20 22 24 26 28 30 32 34 36 38
63 69 80 75 71 68 67 66 60 55 52 51 49 47 46 44 42 40 38 36 37 34 32 30 27 27 27 27 28 27 26 24 22 19 18 20 23 19 15 19 24 24 25 26 26 27 30 32 34 35 37 38 40 42
56 61 71 84 79 73 70 65 64 60 54 55 54 52 49 48 46 43 44 41 41 40 38 38 31 28 29 31 32 32 31 30 28 27 23 25 25 25 19 26 27 29 30 31 33 34 34 35 37 39 40 42 44 46
56 56 58 61 74 83 72 65 64 62 58 57 57 56 58 54 51 48 47 44 44 43 45 42 38 33 32 32 32 32 32 32 32 30 31 32 30 27 30 30 32 34 35 36 37 38 39 41 43 44 45 47 48 49
58 57 55 58 58 61 79 73 62 51 48 51 49 54 61 54 50 51 52 50 48 47 48 45 39 39 37 37 37 37 37 37 38 36 37 38 36 34 37 37 38 39 40 41 42 43 45 46 47 48 49 51 52 53
58 59 58 57 58 55 54 66 62 56 44 46 53 59 61 53 49 51 53 56 53 51 48 42 40 40 40 40 40 41 43 43 43 42 42 42 38 36 37 38 40 42 44 46 47 48 49 50 51 51 52 53 53 53
57 58 59 59 59 59 56 54 53 54 54 57 54 46 46 48 46 49 58 59 58 55 49 39 39 43 42 40 41 43 44 46 48 48 46 46 44 44 42 41 43 44 46 47 49 51 53 53 52 51 51 51 52 53
56 57 58 59 59 60 63 62 58 57 54 55 56 60 58 55 60 57 63 63 58 46 42 42 43 43 42 43 45 43 46 49 46 50 51 44 38 43 45 46 45 44 44 44 45 46 47 48 48 48 49 50 52 54
52 55 56 57 58 60 62 65 66 64 66 65 62 63 64 61 59 60 57 50 44 45 44 43 41 39 40 40 42 42 44 45 49 47 39 38 43 45 45 44 43 44 44 45 46 46 45 45 45 46 47 48 47 48
50 52 54 56 57 59 61 64 67 72 72 70 76 74 69 59 58 55 55 54 49 50 46 42 41 38 39 42 43 43 43 46 46 41 41 42 43 44 44 43 42 42 44 45 46 46 43 43 43 43 43 44 46 49
47 49 50 52 54 57 60 62 65 68 71 76 78 79 72 66 57 54 54 53 54 54 55 54 51 48 47 47 46 45 45 44 39 41 42 42 42 41 38 38 40 43 44 45 45 42 42 43 44 44 45 47 50 52
45 45 47 50 53 56 59 62 65 69 71 73 71 70 69 65 67 69 67 63 62 63 60 57 54 49 48 49 49 48 43 40 44 44 44 42 41 39 38 40 42 44 45 45 43 42 43 45 46 48 51 53 56 59
40 43 48 51 54 56 57 59 63 67 69 66 66 64 65 66 66 66 65 67 68 67 65 62 57 55 52 50 47 44 42 44 45 44 42 41 41 41 43 44 46 48 48 47 47 48 49 51 53 54 56 58 61 64
43 46 47 50 52 54 56 58 60 63 61 60 60 60 61 62 61 61 64 67 67 65 65 63 62 58 53 49 41 39 41 43 44 43 43 44 45 46 47 48 50 52 54 56 56 57 60 61 59 59 61 62 64 68
43 45 46 47 51 54 56 56 55 55 55 54 55 55 57 59 59 62 64 67 68 68 70 67 61 55 48 43 44 42 44 45 46 42 44 47 47 46 48 49 49 49 49 50 52 54 57 58 60 63 64 66 68 70
40 41 43 45 48 50 52 53 51 46 46 48 49 52 56 57 59 61 63 63 69 71 68 62 59 50 47 45 45 44 46 49 46 46 47 49 48 47 47 47 49 52 53 55 57 59 60 61 63 65 66 69 72 76
35 36 38 41 45 47 46 45 45 44 47 45 46 47 52 55 57 59 61 66 67 64 66 60 55 49 48 46 44 47 49 48 48 48 48 47 44 44 47 48 48 50 52 55 58 59 61 64 65 68 70 73 78 82
24 26 29 32 34 34 34 37 38 39 41 44 46 49 52 53 56 58 62 62 61 62 60 58 56 49 46 43 46 46 48 49 50 49 47 45 45 46 47 45 48 52 55 57 59 61 64 68 69 72 75 79 83 84
20 19 31 39 38 47 29 26 27 29 29 35 40 46 47 48 50 54 55 55 55 52 51 50 49 47 46 46 50 51 50 50 49 49 48 48 47 48 50 51 53 56 59 61 63 65 67 69 73 77 80 82 81 78
19 22 28 39 47 52 45 34 24 28 34 35 36 37 38 40 42 42 37 31 39 39 42 42 46 44 46 49 50 50 49 47 47 48 49 48 48 50 52 54 57 59 61 64 66 67 70 74 78 79 79 77 74 68
25 25 29 36 47 48 46 44 34 32 28 27 18 22 28 25 26 32 36 35 40 43 43 42 40 43 49 52 51 48 47 46 46 46 48 49 51 53 56 57 58 58 62 64 68 71 74 77 77 76 73 67 60 59
25 26 23 31 35 35 33 34 29 28 25 30 24 19 21 28 30 32 32 31 37 44 48 47 49 50 49 48 46 46 45 44 44 45 49 51 53 54 55 56 59 61 65 69 73 75 74 74 73 69 61 55 58 59
16 23 27 27 34 40 28 19 14 13 16 21 23 28 30 29 33 35 37 40 41 42 44 46 46 45 45 44 42 41 42 44 46 47 48 49 51 53 56 59 62 66 71 72 71 70 70 69 63 57 58 59 57 52
13 15 17 21 23 25 32 31 21 20 19 18 18 19 21 26 30 33 36 38 37 37 38 40 42 41 40 39 39 40 42 43 45 47 48 50 52 56 60 63 67 70 71 68 67 62 59 56 56 56 55 48 43 41
8 12 13 15 17 21 24 26 26 27 28 28 27 28 28 30 32 33 33 33 33 35 36 36 37 38 39 39 38 40 42 44 47 50 52 54 57 60 64 66 68 67 65 57 51 51 52 52 50 44 42 40 38 37
14 14 12 13 17 19 20 21 24 26 26 27 28 29 31 32 33 33 33 34 34 35 36 37 38 38 38 39 40 42 45 49 52 54 56 59 63 65 65 64 59 49 44 48 48 46 44 39 35 35 35 34 34 32
22 21 23 23 21 20 20 21 21 21 21 22 21 21 22 22 25 28 30 31 31 32 33 35 36 38 40 43 45 47 50 53 56 59 60 60 60 57 49 40 39 42 44 44 39 36 32 30 32 33 31 30 28 26
21 24 26 29 31 30 27 26 26 27 27 28 28 29 30 30 31 32 32 33 34 35 37 38 40 43 45 47 48 50 51 53 54 53 51 45 36 33 35 38 41 41 35 31 29 28 29 30 30 31 29 26 23 22

GFSWCAN_500_spd_141.txt.gz
Wind_Speed
60 63 52 44 42 45 46 46 44 45 46 42 37 34 31 28 25 24 22 18 17 13 10 11 11 10 7 5 3 3 4 4 3 2 1 1 1 2 3 3 4 4 5 6 7 7 9 10 12 12 13 15 17 19
58 59 57 52 46 45 45 44 43 42 44 43 42 39 36 34 30 28 27 22 20 18 14 13 13 12 10 8 6 4 5 5 5 5 4 4 6 5 5 5 5 6 7 7 8 10 12 14 15 17 18 20 22 24
59 60 60 55 53 46 46 45 42 40 40 42 42 42 39 38 37 32 32 28 24 22 22 18 16 14 12 11 10 8 7 6 7 8 8 8 7 7 7 7 8 9 11 13 13 15 17 17 19 21 23 24 26 28
60 63 62 58 57 52 49 48 45 42 40 38 38 38 39 37 35 36 38 34 31 28 26 24 19 17 16 15 13 11 9 8 9 12 12 12 13 12 12 12 13 14 14 16 16 18 18 19 20 22 24 26 28 29
67 63 65 57 57 57 53 49 48 45 43 42 40 38 35 34 35 33 35 38 36 34 30 27 24 19 16 16 14 15 13 12 11 11 13 15 16 16 17 17 20 21 20 19 19 21 21 21 21 22 24 25 27 29
70 71 66 68 61 60 58 56 52 49 48 46 44 42 41 41 39 36 33 33 33 36 35 33 28 27 22 22 22 21 21 19 17 15 16 15 16 16 15 17 23 20 19 18 19 20 20 22 23 25 27 29 31 33
63 70 72 67 69 62 62 61 58 55 53 50 49 49 46 44 42 40 37 33 34 33 34 33 30 28 27 25 25 26 25 24 24 21 19 19 19 18 15 16 25 24 23 23 21 22 23 24 26 30 32 33 34 37
55 58 63 67 70 71 62 64 62 60 58 56 54 51 47 45 45 41 40 38 38 37 36 38 33 30 31 32 31 29 29 28 25 25 24 26 25 21 16 25 27 26 27 28 29 30 30 31 32 34 35 37 39 42
55 55 57 59 61 69 75 63 62 63 64 62 57 53 51 51 47 44 44 42 41 42 43 41 35 35 35 34 33 32 32 31 29 27 27 30 28 24 26 28 29 30 32 33 35 35 35 36 38 39 40 42 44 46
55 56 56 56 58 60 72 72 61 62 65 62 59 55 58 57 49 48 50 49 47 46 48 43 37 38 38 38 37 37 37 37 36 32 33 32 27 27 32 33 35 36 38 39 39 39 40 41 42 43 45 47 48 50
53 56 57 57 56 57 57 74 67 62 62 58 60 64 62 57 50 47 52 54 52 49 48 43 42 39 40 41 39 40 40 40 42 41 39 39 32 32 33 36 39 40 40 42 42 42 41 43 44 45 46 48 50 51
51 54 56 57 57 56 54 58 61 64 61 60 55 54 53 55 49 47 57 60 59 56 53 44 36 38 39 40 42 42 41 43 45 43 42 42 36 35 37 39 40 41 41 42 43 43 44 44 45 46 47 48 49 50
52 52 54 57 58 58 57 57 55 60 52 59 62 52 56 59 57 56 63 66 64 53 45 35 37 41 42 43 46 45 47 47 46 49 48 40 40 46 47 44 41 40 39 39 41 41 42 43 43 44 46 47 48 50
52 53 53 54 57 59 60 60 61 60 57 52 59 59 59 65 63 56 56 54 49 41 37 37 39 41 39 38 43 45 48 49 51 47 35 37 41 39 39 40 42 43 43 42 41 41 41 42 43 44 45 46 45 45
49 52 53 53 55 58 60 62 63 65 65 64 70 70 68 66 57 55 52 52 51 47 41 39 41 41 39 43 43 43 44 48 47 34 35 39 36 37 38 39 39 39 39 39 39 39 39 40 42 42 42 43 43 43
47 49 49 51 53 55 58 61 64 67 71 72 70 70 70 61 56 57 50 55 57 51 48 45 45 46 47 45 45 45 45 44 39 40 43 40 39 38 37 38 39 38 37 37 37 37 39 41 42 44 45 45 46 48
44 45 49 51 53 54 56 59 62 66 69 71 65 64 64 62 60 54 57 54 58 59 54 52 52 51 52 51 50 49 44 41 43 44 46 46 45 44 42 41 39 36 35 36 39 40 39 43 46 48 49 51 51 53
41 43 46 50 52 53 54 57 61 64 64 61 62 62 65 64 62 66 67 65 63 62 59 57 59 60 57 52 49 49 50 48 46 47 47 46 46 46 43 40 39 38 38 40 38 40 43 45 47 48 49 50 51 54
41 42 44 46 50 53 54 56 57 58 56 57 57 60 64 64 66 69 72 70 73 74 76 76 76 72 66 61 58 58 57 54 51 49 49 48 43 42 40 39 38 40 41 41 43 46 47 47 48 50 52 54 56 58
41 42 43 44 47 49 51 53 53 54 53 52 54 56 59 60 63 68 72 76 77 80 83 82 79 71 69 66 64 62 61 57 52 48 46 44 44 43 41 40 40 41 42 44 45 48 48 49 51 50 52 55 56 58
38 38 39 44 46 46 47 47 46 47 48 50 50 52 55 56 60 63 66 70 77 82 82 79 76 73 70 68 65 60 60 59 54 49 45 42 41 41 42 42 42 42 42 44 46 48 48 48 50 53 54 56 59 62
33 36 37 40 42 44 43 41 40 40 42 43 46 47 50 53 54 58 62 71 73 70 69 69 69 69 71 68 66 63 62 56 51 46 42 41 37 39 40 40 42 43 44 45 47 47 50 54 55 57 59 62 64 66
30 31 32 33 35 38 38 38 39 38 39 39 43 46 46 46 48 53 62 64 63 63 64 66 65 67 68 67 65 62 62 58 53 43 38 38 39 42 43 42 44 45 46 49 50 52 53 55 58 60 63 65 68 70
19 22 24 26 31 34 34 35 35 37 37 37 37 39 40 42 44 50 53 55 55 57 59 60 61 62 62 63 61 60 58 52 49 42 35 40 43 46 44 44 46 47 49 51 52 54 56 58 61 63 66 68 70 74
19 21 23 25 27 30 32 31 31 30 22 16 16 20 22 26 35 41 46 48 49 47 46 50 54 55 51 45 38 41 44 45 39 35 38 43 49 46 46 48 49 50 51 52 54 56 58 61 63 65 66 71 74 76
24 21 21 20 18 21 25 30 32 31 28 14 11 14 21 22 20 22 31 38 41 38 36 36 38 34 31 28 29 29 31 33 36 39 43 48 49 50 52 51 52 53 54 55 56 58 60 62 64 66 69 73 74 73
25 23 22 19 21 19 16 16 22 27 30 29 20 23 28 28 27 22 13 20 26 29 30 29 29 33 29 28 30 29 29 34 39 45 46 49 52 53 54 53 52 54 55 56 58 59 61 63 66 69 71 72 67 59
18 25 24 20 18 17 19 23 19 21 24 21 23 20 29 29 24 18 17 16 17 19 19 21 28 30 25 27 30 33 37 40 44 47 49 50 52 53 53 53 54 54 55 56 58 60 63 66 68 70 70 60 51 51
4 8 15 21 23 22 20 15 19 24 21 21 20 18 17 18 19 19 18 19 20 20 19 15 16 20 25 30 34 36 38 41 43 45 47 50 51 52 52 52 52 54 55 58 61 64 65 67 68 62 50 47 48 43
6 7 7 10 14 18 22 24 28 27 25 25 22 20 17 14 14 15 16 16 14 13 15 18 22 25 28 31 34 37 40 42 44 46 47 47 47 47 49 52 54 56 60 62 63 64 64 62 49 45 47 47 41 38
8 6 7 10 12 14 17 20 22 24 25 26 27 26 24 22 23 22 22 22 22 23 24 25 27 30 32 34 37 39 40 39 40 41 43 45 47 49 52 55 58 60 61 62 62 56 44 43 43 45 42 35 35 38
19 19 17 16 17 18 16 16 16 17 19 21 22 22 22 21 22 23 23 23 24 24 25 26 28 30 32 34 34 35 37 39 41 43 45 49 53 55 57 58 59 60 58 49 39 41 42 42 40 34 31 33 33 35
26 26 26 26 26 25 25 26 24 22 20 20 20 21 21 22 22 23 23 23 24 24 26 28 29 31 33 35 37 39 41 43 46 49 51 52 53 53 52 49 45 40 38 40 39 37 36 32 28 28 28 28 29 29

GFSWCAN_500_spd_144.txt.gz
Wind_Speed
55 52 57 54 50 45 48 53 51 51 49 43 46 40 36 32 31 26 23 19 18 16 12 10 9 9 9 8 7 7 5 3 2 2 1 1 2 4 4 4 5 5 5 6 8 9 10 10 11 12 13 16 16 17
62 53 55 56 53 47 42 44 48 49 43 40 38 44 42 36 34 31 27 26 22 20 17 13 12 12 11 10 9 7 7 6 5 4 2 2 3 3 2 2 2 3 3 4 5 6 7 7 8 9 11 13 15 17
61 60 55 60 54 53 45 41 42 41 39 41 44 42 43 39 37 33 28 27 29 24 22 18 16 14 14 13 12 11 9 8 9 9 7 6 5 3 3 4 5 6 6 8 7 8 8 10 12 13 15 17 19 21
62 60 53 61 62 57 54 52 43 38 40 42 41 41 42 43 41 39 34 32 32 31 30 26 21 17 17 17 15 14 13 11 9 9 12 11 10 9 8 8 9 9 10 9 11 12 12 13 14 15 17 18 20 22
60 65 52 59 63 61 57 53 49 43 39 39 37 38 39 41 43 40 36 35 33 32 33 30 28 25 22 19 17 15 14 15 13 13 12 12 14 14 13 13 17 16 16 16 15 17 17 17 17 18 18 19 20 21
57 69 63 52 60 61 61 57 52 47 41 39 38 38 37 37 36 34 35 33 28 28 29 31 31 31 27 25 24 23 22 21 19 18 17 15 17 14 12 15 20 20 20 19 16 16 16 17 18 19 21 22 23 26
51 62 68 56 55 57 61 61 58 52 46 44 41 40 40 39 39 37 35 32 32 31 28 28 29 28 27 28 27 25 24 24 24 22 20 20 20 19 13 15 22 21 20 19 20 20 21 20 21 24 26 28 30 32
49 52 58 73 53 54 62 61 58 54 50 47 44 42 41 41 40 39 38 36 35 35 33 34 26 24 25 26 26 26 27 27 26 26 23 25 25 23 15 24 26 25 25 24 24 24 25 26 28 29 31 33 34 36
49 49 53 58 70 53 59 63 60 58 55 51 48 46 47 47 45 42 41 40 39 39 38 33 29 28 27 27 28 28 30 30 29 28 26 28 25 21 24 26 29 29 29 29 30 30 31 33 35 36 36 37 39 40
48 50 51 52 57 65 52 57 59 59 56 55 55 53 53 52 48 45 45 44 43 41 41 34 30 31 31 30 31 31 31 33 33 31 32 30 24 23 29 26 27 30 32 33 34 34 36 36 37 39 40 40 42 45
48 49 51 52 51 53 59 52 50 57 61 56 56 57 57 55 51 49 51 49 47 44 42 36 37 35 34 33 34 37 37 38 39 36 35 34 26 29 33 36 35 34 33 34 35 36 37 38 39 40 42 43 45 46
47 48 50 52 53 52 51 53 54 51 54 61 59 60 60 58 54 52 55 55 52 49 46 40 36 35 33 33 34 37 37 39 42 42 40 36 32 34 35 36 37 38 38 38 38 39 39 39 40 41 43 44 46 49
49 49 50 50 53 55 55 53 52 54 51 55 61 61 63 63 61 62 59 59 56 55 50 38 34 39 39 38 41 41 42 45 43 45 42 37 40 40 39 38 39 39 39 37 36 37 39 40 42 43 44 46 48 49
49 50 50 50 52 54 56 57 57 56 56 52 52 58 64 63 67 64 59 58 58 52 48 44 41 40 41 39 44 45 44 47 49 46 36 38 37 38 36 36 35 35 36 37 37 38 38 39 40 41 43 44 45 43
47 50 50 51 52 53 55 57 60 62 62 60 56 56 58 64 64 61 59 59 56 52 49 45 42 41 40 42 46 47 46 48 46 32 35 37 38 36 37 38 38 37 36 36 36 37 37 37 37 39 39 40 42 42
45 47 48 50 51 53 55 57 59 61 63 65 64 57 53 51 53 62 61 60 58 57 53 47 46 46 49 48 47 47 48 48 34 33 38 40 41 40 40 40 40 39 40 40 40 40 39 37 38 40 42 40 42 42
41 42 47 49 50 52 54 56 58 59 62 63 60 58 56 52 51 51 54 61 60 57 54 53 49 49 51 50 52 52 45 32 35 42 41 40 41 42 42 41 40 41 42 43 43 43 41 39 40 40 40 42 43 44
36 39 43 45 48 50 51 54 57 59 58 57 57 57 59 59 60 58 60 62 62 62 61 60 59 59 57 54 50 44 40 42 45 46 46 45 47 48 47 46 45 45 44 43 41 40 41 41 42 42 43 44 46 49
39 39 40 41 44 46 48 51 52 53 53 53 55 57 58 59 62 65 67 67 69 67 63 56 55 60 59 54 47 48 50 52 53 53 55 56 56 56 54 51 49 47 44 42 40 41 42 43 42 43 44 46 47 49
40 39 39 40 40 42 45 48 49 51 49 49 51 54 57 59 60 62 67 72 74 77 77 76 70 65 60 57 55 55 57 57 57 59 62 66 65 62 58 51 48 47 46 45 46 46 45 44 46 46 46 47 47 50
38 39 40 39 39 39 41 42 42 47 50 50 49 51 54 56 58 60 63 67 75 80 79 75 74 73 74 74 73 71 70 69 68 69 68 67 62 53 50 51 50 46 46 44 45 45 44 44 45 46 47 50 52 55
32 34 35 37 37 38 38 38 37 38 41 44 45 47 50 53 54 56 61 68 72 70 69 70 73 75 75 75 74 73 74 74 73 71 66 61 57 53 45 45 43 43 43 43 42 43 45 45 45 48 51 53 54 57
21 25 29 33 35 37 35 33 35 34 36 37 40 43 45 47 51 55 59 59 59 59 64 68 70 71 73 73 73 73 73 74 74 74 71 63 61 51 48 47 45 45 46 46 45 46 48 48 49 52 54 55 58 60
25 27 28 30 33 33 31 32 32 34 36 37 38 39 39 41 45 48 49 47 47 51 55 59 63 67 70 71 71 71 70 70 68 66 65 59 57 53 49 48 48 44 44 47 48 52 51 52 55 56 59 60 62 64
19 21 26 28 28 30 30 29 30 31 33 34 37 37 37 37 39 40 37 37 40 45 49 53 58 61 64 64 64 64 64 63 60 57 52 49 49 45 44 46 46 46 47 47 51 54 56 57 58 61 62 64 65 66
18 22 22 20 18 18 17 16 17 16 22 26 27 27 24 25 23 18 19 20 24 33 42 47 49 49 50 52 51 49 45 45 44 45 42 36 35 38 40 41 42 44 47 49 51 56 58 59 61 62 63 64 65 66
13 18 19 17 14 13 12 11 14 19 18 20 22 23 20 15 14 16 21 22 24 25 34 37 39 40 42 41 40 36 34 32 29 28 32 36 40 41 40 42 43 47 47 50 53 55 57 60 61 61 60 61 65 69
9 12 15 19 16 14 10 10 10 15 16 20 23 25 22 15 17 17 19 23 23 23 20 21 24 27 27 27 32 32 32 33 31 31 30 28 30 34 38 41 42 45 47 49 52 55 57 57 57 59 61 65 65 63
5 4 7 11 15 18 15 15 11 8 12 14 17 18 19 20 16 15 13 15 16 16 15 14 17 23 27 24 28 33 31 29 30 31 31 32 34 37 41 42 42 44 47 51 53 53 52 54 58 62 63 62 55 50
3 4 6 6 7 10 15 19 15 14 11 12 14 14 13 11 12 8 7 12 14 18 20 22 22 23 24 24 26 30 31 31 30 29 31 33 35 36 38 40 43 45 47 48 49 52 56 59 61 60 53 46 44 41
11 7 6 8 10 10 10 11 15 18 19 21 21 21 21 23 23 25 25 23 19 9 9 12 15 16 18 18 20 22 24 26 28 30 32 33 33 34 36 39 42 44 46 50 54 57 57 54 45 39 38 39 37 34
21 19 16 15 12 13 13 14 15 16 17 18 19 20 22 24 26 24 23 21 21 20 19 20 21 21 22 23 24 23 23 24 25 28 30 32 35 37 40 42 45 49 52 53 53 45 37 36 37 36 32 30 31 32
25 26 27 24 22 21 20 19 19 18 18 18 19 19 20 20 20 20 21 21 21 21 21 21 21 22 22 23 24 25 26 28 29 32 34 37 40 43 46 48 50 50 48 37 32 34 35 34 31 27 26 27 28 28

GFSWCAN_500_spd_147.txt.gz
Wind_Speed
46 44 44 45 44 45 44 38 40 48 46 42 40 39 37 37 33 28 29 25 21 16 14 13 12 10 9 9 8 9 8 7 4 3 2 2 4 5 6 6 6 7 7 8 10 12 12 14 14 13 13 12 13 15
47 44 43 44 48 43 45 44 39 44 49 48 46 43 42 39 35 32 33 28 25 22 18 16 14 14 11 10 8 8 9 10 8 5 3 1 2 1 1 2 3 4 6 7 8 9 9 10 11 12 13 15 17 19
49 46 45 44 45 41 42 47 42 41 50 52 49 45 47 43 42 42 37 36 31 27 23 21 19 17 16 13 12 10 10 10 9 9 7 7 5 3 2 3 4 4 4 4 4 6 7 8 9 11 12 14 15 17
52 50 48 45 46 47 42 49 48 42 39 49 49 50 42 38 40 42 42 37 33 29 28 26 26 22 19 17 15 15 13 11 9 8 8 9 9 8 7 7 7 6 5 3 5 5 6 8 10 12 13 15 17 19
54 52 50 49 48 47 47 41 50 47 41 38 44 46 41 39 41 40 42 41 38 34 32 30 28 29 28 24 22 19 16 15 13 12 10 10 11 10 11 11 12 12 11 10 11 10 9 10 11 11 11 12 14 15
55 54 52 52 51 51 57 43 49 50 49 43 36 38 39 39 41 38 40 42 41 40 35 32 28 28 29 26 25 23 21 20 19 18 17 13 14 11 8 12 17 14 14 14 13 13 12 11 11 12 13 14 16 18
51 52 52 53 54 53 56 45 51 54 50 47 41 37 35 37 36 36 36 35 36 38 35 31 27 23 25 28 28 27 26 25 22 20 18 18 19 18 11 14 20 19 17 15 14 14 14 14 15 16 18 20 22 24
47 49 51 53 54 54 55 51 49 56 54 50 45 41 36 36 35 36 36 35 34 34 33 33 25 21 22 22 22 23 24 25 24 21 18 19 17 17 14 25 24 21 22 21 19 18 18 19 21 22 24 25 28 31
44 47 50 51 53 54 58 53 49 52 55 54 52 49 44 40 38 36 36 36 36 36 36 29 24 24 25 23 24 24 24 24 24 22 22 21 16 15 17 17 20 22 22 22 23 22 23 24 25 26 28 30 32 34
42 45 48 49 51 52 60 48 51 53 56 54 51 52 50 43 41 40 39 38 36 36 35 28 25 25 26 26 27 27 27 28 25 22 24 22 15 23 22 19 21 22 22 23 24 25 26 27 28 31 33 35 37 40
39 41 45 47 48 48 60 50 49 54 53 57 54 52 51 48 46 46 46 44 41 39 36 29 27 27 29 28 28 30 31 31 32 27 28 23 19 27 28 28 27 26 26 27 28 30 31 33 35 38 40 42 42 44
40 42 43 43 46 47 48 57 47 51 55 54 53 52 51 52 50 51 52 49 45 42 39 34 31 31 31 32 31 31 31 33 35 30 28 25 28 27 28 30 30 30 31 33 34 35 37 39 40 41 42 42 44 46
42 42 41 41 44 46 48 49 53 50 51 53 53 52 52 54 56 56 54 51 48 45 41 40 37 36 35 34 35 35 37 39 37 38 35 31 35 34 31 31 31 32 33 34 36 38 39 39 39 40 42 43 46 48
41 43 42 41 43 45 47 49 51 52 51 51 53 57 57 56 57 54 54 54 52 50 49 46 42 40 39 40 42 42 43 43 43 40 34 35 35 34 31 30 29 29 30 32 33 35 36 37 39 41 42 44 45 46
40 42 44 45 44 44 46 48 51 53 53 53 55 56 59 60 60 60 60 60 58 56 55 52 46 43 42 44 45 46 46 46 43 36 37 34 35 34 32 32 34 34 34 35 35 35 36 38 39 40 42 43 43 43
39 40 42 45 46 46 46 47 50 52 54 55 53 51 52 53 57 63 63 61 61 59 56 54 51 49 47 47 47 47 46 44 38 36 36 34 36 37 38 39 40 41 40 37 36 36 36 37 39 41 42 42 44 45
37 37 42 43 45 48 48 48 49 50 53 55 53 52 51 51 52 53 58 64 61 57 55 55 54 51 50 48 48 48 44 38 39 37 40 42 44 44 45 45 44 42 40 37 36 38 40 41 43 44 43 44 45 46
35 37 38 40 43 45 48 48 49 50 50 50 51 51 53 55 56 55 55 53 52 54 53 54 56 57 54 53 51 48 47 45 45 46 46 45 48 50 50 49 47 47 46 44 45 47 48 47 46 45 45 46 48 49
39 37 35 36 37 41 44 48 51 50 49 48 49 51 53 53 53 58 61 60 57 57 55 48 44 48 53 54 54 51 51 51 51 51 50 50 51 53 53 51 50 49 51 53 55 55 51 48 46 46 45 48 50 51
39 37 35 34 34 37 39 44 47 48 49 49 49 50 52 52 52 54 57 62 66 70 68 66 62 56 49 47 51 53 56 57 58 57 57 57 55 55 56 55 54 54 57 59 57 53 51 47 46 46 46 46 46 49
39 37 36 34 33 33 35 37 41 42 46 47 46 47 48 49 50 53 55 61 68 72 71 65 63 64 63 61 62 63 59 55 54 55 52 53 56 56 56 61 64 63 62 55 50 50 51 46 45 45 47 46 46 50
37 36 34 33 33 34 32 32 34 34 37 39 40 44 48 49 51 52 57 60 62 60 60 61 64 68 71 71 70 71 71 71 70 68 66 65 67 68 67 66 64 56 44 49 54 56 50 48 48 48 48 49 50 50
31 30 30 31 33 33 31 32 31 29 31 31 33 38 42 46 49 53 56 54 50 51 57 61 62 64 66 66 68 69 69 68 68 68 67 66 64 64 64 62 60 54 52 58 62 60 55 55 55 52 51 51 49 52
20 20 22 25 28 27 27 28 27 28 29 30 34 36 38 40 45 48 48 45 47 50 53 55 59 61 62 63 64 64 64 64 66 66 64 63 61 61 62 60 58 58 59 61 60 61 54 53 52 53 51 51 51 54
16 18 20 22 23 24 25 25 23 21 23 24 29 32 35 37 38 38 36 35 39 42 45 49 52 56 57 58 58 59 60 61 63 62 60 60 59 58 57 56 55 54 53 55 51 50 51 52 53 52 48 50 54 57
11 16 18 17 19 20 19 18 14 14 16 20 24 26 27 30 29 28 25 29 31 33 35 38 41 43 45 49 51 52 54 56 56 54 50 50 50 50 47 45 46 49 46 45 48 47 49 49 49 49 50 52 55 58
9 11 10 12 13 13 13 13 14 15 17 20 20 22 23 24 21 20 25 27 26 27 29 32 34 35 36 39 41 42 44 45 44 43 41 40 40 41 42 43 43 41 42 39 39 44 46 45 47 48 50 53 55 56
2 4 7 8 9 12 12 12 12 14 18 23 23 22 20 18 20 23 25 24 22 29 35 38 36 37 39 38 38 38 36 34 34 35 38 39 38 35 31 29 31 35 38 39 40 43 43 44 46 48 49 50 51 55
5 4 2 2 8 10 11 12 9 8 11 17 23 22 23 26 25 23 23 22 19 18 20 17 16 17 14 10 9 11 13 18 22 26 29 27 27 28 28 29 28 30 34 36 37 39 42 44 45 46 47 50 54 57
7 8 7 4 3 1 5 9 10 10 7 3 11 18 22 22 22 17 11 4 3 8 14 20 18 16 14 16 17 18 19 20 23 23 26 28 28 30 30 29 29 32 34 35 37 40 42 43 44 47 50 53 55 55
13 11 8 7 9 9 9 7 6 5 6 6 6 3 6 8 8 8 10 14 14 13 11 15 16 17 18 18 17 18 19 19 21 25 26 26 25 27 28 29 30 31 33 36 38 39 42 45 48 50 51 50 45 39
19 17 17 16 13 11 10 9 9 10 11 10 8 7 7 8 10 12 13 13 12 12 10 9 10 11 12 12 12 13 14 15 17 19 21 22 24 25 27 28 30 32 35 39 41 43 44 45 44 43 40 33 28 27
23 22 22 21 22 21 18 16 15 15 14 14 14 13 12 10 11 11 11 12 12 13 12 12 12 12 13 13 14 15 16 17 18 20 22 24 25 27 29 32 35 38 40 43 42 40 36 35 33 29 24 23 25 26

GFSWCAN_500_spd_150.txt.gz
Wind_Speed
62 58 54 49 47 46 46 45 42 38 43 48 46 40 37 35 33 30 29 28 25 20 16 15 12 10 9 8 9 8 9 8 8 6 4 3 4 5 7 8 7 7 7 8 9 11 13 16 18 16 15 18 15 17
60 57 56 50 47 45 44 42 45 41 44 44 48 44 41 39 38 34 31 31 27 23 19 18 15 12 12 11 10 9 10 10 8 6 7 4 3 2 2 3 5 6 6 6 7 8 10 13 16 17 18 18 16 15
58 57 54 52 48 43 44 40 45 39 37 41 45 49 46 43 42 41 36 37 36 30 25 22 20 17 16 14 12 10 10 11 10 7 4 5 5 2 1 2 2 3 4 4 5 6 8 9 11 13 14 16 18 19
57 57 55 53 48 44 44 40 41 43 39 36 38 43 49 47 46 44 42 39 38 35 33 27 26 23 20 20 16 14 14 13 12 9 5 5 5 5 5 4 4 3 6 7 7 6 8 9 10 11 13 15 16 18
54 56 55 54 50 44 43 41 33 40 46 41 39 38 47 51 50 48 47 43 39 41 39 33 30 28 27 26 25 22 19 16 14 12 11 9 7 4 5 7 8 6 6 7 7 8 9 10 11 12 13 14 15 17
54 55 54 54 52 47 44 44 42 40 51 46 39 38 41 48 51 52 47 38 37 39 40 38 33 32 29 26 24 24 23 21 19 17 15 14 16 9 7 11 10 7 8 9 10 10 9 9 10 10 11 11 12 13
52 54 53 53 52 49 47 43 42 41 40 50 45 40 35 36 41 44 40 39 38 39 40 42 40 38 34 30 28 27 29 28 25 21 17 16 16 12 9 15 19 13 11 10 9 9 9 9 10 11 12 13 15 17
46 49 52 52 51 52 49 46 43 44 41 40 44 43 41 38 37 39 40 40 41 42 42 43 41 36 35 32 27 25 26 26 23 20 19 18 16 15 13 19 18 17 16 13 10 10 11 12 14 14 15 17 19 22
43 46 48 50 51 52 52 50 47 47 42 39 42 44 44 42 38 37 38 39 41 40 38 36 30 30 31 27 25 24 22 21 19 18 19 20 17 16 18 13 12 12 10 10 11 11 12 13 15 18 20 22 24 26
40 44 47 48 49 51 52 52 51 49 46 43 47 49 49 43 39 38 37 37 38 38 38 33 30 29 28 27 25 25 25 24 21 18 19 16 15 20 13 14 14 14 13 13 15 16 16 18 19 22 24 26 30 33
38 42 45 47 49 51 51 51 51 49 49 46 47 50 51 48 47 46 43 41 40 39 36 30 30 29 28 27 25 25 25 25 25 21 23 16 19 20 18 17 18 18 19 19 20 21 22 23 25 27 30 32 34 37
35 38 40 43 47 50 50 51 52 49 46 50 49 47 55 52 51 50 50 46 43 40 36 31 32 31 29 28 28 29 29 29 30 24 24 16 20 19 20 21 20 22 23 24 25 26 28 29 30 32 33 34 35 38
34 35 37 39 41 45 48 52 52 53 48 51 51 51 56 55 53 53 50 48 45 43 43 38 36 35 33 31 32 31 34 35 33 31 25 20 24 25 24 25 25 26 26 27 28 28 29 30 31 32 33 36 40 43
34 35 37 37 39 41 45 49 51 53 50 54 56 57 57 57 58 54 52 51 50 50 49 46 43 41 38 36 36 35 34 34 35 35 29 27 28 28 28 29 29 29 29 28 28 30 33 33 34 36 39 41 45 48
34 36 37 39 39 40 42 45 48 50 56 54 54 57 60 60 60 58 56 55 54 53 51 49 48 46 43 42 40 39 38 38 37 37 38 34 30 30 31 32 32 31 32 33 35 37 38 39 41 41 42 44 45 46
35 35 37 38 40 40 41 43 45 48 52 57 57 54 56 58 59 58 58 59 58 54 52 52 50 49 48 46 44 43 42 40 42 42 41 38 35 35 36 37 36 37 38 38 38 39 40 40 40 41 40 39 41 43
35 35 37 37 39 41 41 42 44 45 48 51 57 58 57 57 59 59 58 56 57 55 54 53 51 49 48 48 47 45 44 45 45 45 46 43 42 43 42 41 42 43 42 41 41 43 42 42 44 45 45 46 47 49
36 37 36 36 38 39 40 41 43 44 45 45 44 49 52 58 61 59 59 57 53 54 54 50 52 52 51 51 49 48 47 48 48 48 48 48 49 50 49 47 46 45 44 45 45 46 45 45 44 46 47 50 54 55
40 38 35 34 36 37 38 40 42 44 44 43 43 43 47 51 54 58 60 60 59 56 49 42 46 53 54 53 51 49 50 51 52 53 53 53 53 53 53 52 52 51 50 49 48 49 50 50 51 52 53 58 56 52
42 39 35 34 34 34 37 39 42 43 43 44 44 44 45 46 50 52 57 60 62 62 60 56 51 44 38 39 39 40 42 44 46 49 52 54 54 55 55 55 54 54 53 52 53 54 56 56 55 57 60 55 53 52
41 39 38 35 32 32 33 32 36 38 39 37 38 42 42 44 46 48 53 59 61 61 60 56 52 52 53 52 51 50 50 52 53 54 54 53 54 54 55 56 53 51 52 55 56 57 57 60 64 63 52 48 49 54
39 39 35 33 31 30 29 28 28 30 31 30 33 37 40 42 44 48 53 54 53 50 53 56 59 60 62 63 64 65 63 60 58 58 59 58 56 57 58 59 59 58 58 59 62 63 62 61 56 51 49 53 57 60
35 35 33 31 30 28 26 27 27 26 26 26 29 34 36 38 43 48 50 48 46 50 54 55 55 58 60 60 63 64 64 65 65 66 67 67 66 65 65 65 65 64 62 59 55 52 54 49 53 54 58 60 63 65
22 21 24 26 26 25 26 27 27 26 26 28 31 32 34 38 42 44 42 44 48 52 52 52 53 54 55 54 54 55 57 60 61 61 63 64 64 63 61 60 60 59 57 53 54 57 60 60 55 55 60 64 66 67
16 17 19 21 23 23 25 25 26 27 27 29 32 34 36 36 37 37 38 38 41 43 45 48 50 51 51 51 51 52 53 53 54 55 56 56 55 55 55 55 54 53 53 53 53 54 60 63 63 62 61 63 55 49
5 6 7 8 10 12 14 15 17 20 25 26 25 26 27 30 30 28 27 29 32 34 35 36 38 39 40 43 43 45 46 48 47 48 47 47 47 47 46 44 43 44 45 48 52 54 56 60 62 57 53 48 51 51
3 2 3 5 7 10 11 13 13 16 18 19 19 22 24 24 22 23 24 26 26 24 22 22 22 23 25 27 28 31 33 36 39 41 42 42 43 44 43 43 43 42 43 46 49 50 50 49 48 43 44 46 51 50
4 2 3 7 10 11 10 12 15 15 15 16 19 22 21 18 19 20 22 23 23 22 16 15 15 17 21 24 28 31 33 34 33 34 36 38 37 37 37 37 37 36 38 39 37 32 29 30 36 41 43 46 49 49
5 5 3 3 1 3 6 10 12 12 11 12 16 19 19 20 20 19 19 18 21 22 20 19 23 19 16 16 19 22 21 15 13 12 16 20 23 21 21 21 21 21 20 23 26 29 33 35 38 40 41 41 43 46
6 8 8 5 5 5 5 3 5 7 5 5 8 13 16 16 16 16 16 17 19 22 21 18 19 17 16 14 13 14 11 8 9 9 11 10 10 13 16 19 21 23 25 27 29 32 34 35 36 37 39 42 44 45
12 10 9 9 6 4 3 4 4 5 4 4 3 4 10 13 15 15 14 14 14 10 6 7 8 10 12 16 17 16 16 17 17 18 17 19 20 22 23 23 24 24 25 26 29 31 33 35 36 38 41 42 44 44
21 18 16 15 15 13 9 7 5 4 2 1 2 3 4 5 8 7 8 9 7 6 6 7 7 7 7 8 9 9 10 10 10 12 14 16 17 19 21 22 24 25 27 29 32 33 35 36 37 40 41 39 37 33
19 20 20 20 20 20 20 18 15 13 11 9 7 4 4 6 7 7 7 7 8 8 10 10 10 10 10 11 12 13 13 14 15 16 17 18 19 20 22 24 26 28 30 32 34 35 36 36 36 35 34 31 26 24

GFSWCAN_500_spd_153.txt.gz
Wind_Speed
51 53 61 61 53 53 51 47 46 46 39 38 51 50 50 50 47 41 36 34 31 29 25 22 16 14 13 9 8 9 10 11 11 10 9 7 8 8 9 8 6 4 4 4 4 5 8 14 19 21 25 26 26 28
47 55 53 54 51 55 51 48 45 44 38 39 48 49 49 48 45 40 36 35 32 31 27 24 21 17 15 13 11 10 10 10 11 10 8 9 5 5 6 5 5 5 4 4 5 6 6 10 15 16 18 20 18 22
47 56 56 55 53 54 53 48 44 46 41 40 40 49 50 51 47 39 37 34 31 32 30 26 25 22 20 17 15 12 11 10 11 9 7 5 7 7 4 3 3 1 2 4 4 6 8 8 9 13 17 20 19 17
44 52 54 53 53 52 53 48 46 47 41 41 39 40 48 50 47 42 40 37 35 34 32 29 29 27 23 21 20 17 15 14 13 12 9 7 5 5 7 6 5 5 5 5 5 6 7 9 10 11 12 15 18 19
41 43 54 55 53 53 53 47 46 45 36 39 42 42 43 51 51 47 45 41 39 39 36 35 33 32 29 25 25 24 22 21 19 15 11 10 10 6 6 7 6 5 4 5 7 7 7 8 10 11 13 15 16 17
38 47 47 58 58 56 54 49 46 44 37 40 42 39 38 40 51 55 48 48 45 43 44 40 36 36 36 30 29 28 28 27 25 23 19 14 14 10 9 12 9 7 6 6 7 9 10 11 12 12 13 14 15 16
40 42 44 51 51 53 54 50 48 44 33 35 46 43 37 38 41 41 50 49 47 50 46 44 43 38 37 37 32 30 31 29 27 27 24 20 20 15 10 14 14 5 8 8 7 8 9 9 10 11 12 13 14 15
37 39 45 42 46 49 51 52 48 46 41 35 39 47 42 38 37 39 44 52 52 52 52 47 43 34 32 35 39 36 35 33 27 28 26 24 22 19 13 19 18 14 10 10 10 10 11 11 12 13 13 14 14 16
36 38 40 46 41 49 50 53 50 47 46 40 32 36 45 44 40 37 36 41 48 51 49 47 41 35 37 37 40 40 37 31 27 23 22 22 18 17 19 17 15 12 9 7 9 12 13 13 14 15 16 17 19 21
35 36 39 42 46 44 48 52 50 48 49 42 42 43 38 45 44 40 42 41 40 41 44 43 38 36 36 37 39 38 33 31 27 22 22 16 17 21 16 13 13 12 11 11 10 11 12 13 15 17 19 20 22 24
32 34 36 39 43 47 47 48 50 50 48 48 46 44 35 35 39 42 44 45 41 39 40 38 37 36 36 34 31 32 33 32 29 25 25 18 18 18 14 15 14 13 13 14 14 15 16 17 19 20 22 25 27 29
30 32 33 36 39 44 48 48 49 50 49 52 48 44 42 45 47 46 46 44 41 39 38 34 34 35 34 31 31 31 33 34 32 25 25 18 23 20 18 16 15 15 16 17 17 18 20 21 22 24 26 27 29 30
29 31 32 33 37 41 45 47 49 49 48 47 52 50 50 49 48 49 48 46 45 40 39 35 35 35 31 32 32 33 35 36 32 29 24 17 22 20 19 18 19 21 22 22 23 23 24 25 26 27 29 32 34 36
28 29 31 32 34 37 42 46 48 50 50 50 49 51 52 55 53 46 47 49 46 46 46 43 39 37 34 34 35 35 36 35 35 31 23 25 23 22 22 24 26 26 27 27 26 26 27 28 29 32 34 35 38 42
30 31 32 32 33 35 38 43 47 50 51 54 55 49 52 54 54 50 48 47 50 51 50 47 45 41 40 40 38 38 39 38 35 31 30 26 25 26 27 29 30 31 30 30 30 31 32 33 35 37 39 41 44 46
30 32 34 34 35 35 37 41 44 47 51 54 57 55 52 52 55 55 52 52 54 54 54 53 50 46 45 45 44 42 41 40 38 37 37 35 33 32 32 33 34 35 35 35 35 35 36 38 40 42 43 45 46 46
33 33 34 35 36 36 38 39 42 45 49 53 54 58 54 55 55 58 57 56 55 57 57 55 52 50 50 48 47 46 45 44 44 43 43 42 42 41 40 39 40 40 39 39 39 40 41 42 44 46 46 47 48 49
37 37 35 36 37 37 38 39 41 42 44 47 52 55 59 58 56 58 57 55 53 52 57 57 58 54 50 49 48 47 47 46 46 47 47 47 47 48 48 47 46 45 45 46 46 45 45 45 45 48 49 50 50 51
41 39 37 38 38 37 38 40 41 42 43 44 47 50 53 59 64 60 57 56 53 52 50 46 50 56 55 53 52 49 49 48 49 50 51 52 53 53 52 52 51 50 51 52 52 50 50 49 49 50 50 51 53 54
42 41 39 38 37 37 37 38 39 41 42 43 45 46 48 51 56 65 67 63 60 57 54 53 54 53 49 50 52 55 54 56 56 55 56 56 56 55 55 55 57 58 57 57 56 54 51 52 52 53 53 54 55 57
40 41 42 39 36 36 37 34 35 37 37 40 42 43 44 46 49 53 58 63 64 62 62 58 52 51 53 55 57 59 59 59 59 58 52 53 54 55 56 57 57 55 54 53 52 52 52 53 53 53 54 57 62 64
25 37 39 40 37 34 33 30 30 30 31 33 35 39 42 44 48 50 54 53 52 51 52 52 57 60 60 60 60 59 58 57 55 54 52 51 50 51 51 51 51 52 53 53 54 55 57 60 64 66 63 64 59 56
20 29 33 35 34 33 30 29 28 27 28 28 31 34 38 42 45 48 50 47 46 50 54 52 52 53 55 55 55 55 55 54 55 56 57 58 58 58 58 57 58 58 60 61 64 65 66 67 66 66 63 54 54 59
18 27 29 29 29 29 29 28 28 27 28 28 30 31 34 38 41 43 42 41 46 52 50 49 49 49 50 51 53 54 54 56 57 57 58 58 59 59 60 60 60 60 62 62 62 63 61 59 59 57 59 50 56 58
19 20 21 20 23 23 26 27 28 28 30 31 32 33 33 34 35 37 37 38 43 43 44 45 47 47 47 47 48 49 51 52 52 52 53 55 56 57 56 57 58 59 59 59 59 58 58 56 54 53 54 53 59 62
15 12 10 11 14 17 18 21 25 27 29 30 30 29 29 31 31 31 30 32 34 36 38 39 40 40 40 39 38 39 41 44 44 45 47 49 50 51 52 52 53 53 52 52 52 53 53 53 53 53 53 55 55 54
11 8 4 4 6 10 14 17 20 23 24 25 25 25 26 25 23 24 24 25 26 26 26 26 26 26 28 29 30 32 33 35 37 40 41 44 46 48 49 50 50 49 49 48 48 48 49 51 51 49 48 47 45 43
7 5 2 2 5 6 8 11 13 16 18 20 22 23 23 21 21 22 23 24 24 25 25 25 25 25 25 26 26 26 27 28 31 34 36 38 39 42 43 43 42 42 42 41 40 40 40 39 36 35 34 35 34 36
7 6 5 5 1 2 5 7 9 10 11 11 12 14 14 15 16 17 17 17 19 22 22 20 18 18 15 14 15 16 19 21 24 26 28 26 27 28 27 27 26 25 24 23 22 21 22 22 23 25 29 33 36 39
0 3 2 3 3 3 2 4 7 11 13 14 13 14 16 15 13 11 11 12 14 16 16 15 17 18 19 18 17 16 12 10 10 12 13 13 10 7 5 7 9 12 13 15 18 21 23 26 29 32 35 36 36 39
9 8 8 7 6 4 3 3 3 4 7 9 9 7 8 10 13 15 16 15 15 15 16 19 20 18 16 16 18 17 16 15 15 16 16 15 15 16 16 17 19 21 23 25 26 27 28 30 31 32 33 34 37 38
22 22 20 17 16 14 12 10 7 4 2 3 3 4 8 11 13 16 16 14 12 12 12 14 15 14 13 12 12 13 13 13 14 15 16 17 18 19 19 20 21 22 23 25 27 28 29 30 30 32 35 37 40 42
18 21 23 24 23 22 21 20 17 14 12 9 7 7 9 10 11 11 10 11 12 12 12 12 13 13 13 13 14 14 14 13 14 15 16 16 17 18 20 21 22 24 25 26 28 30 32 33 36 38 38 39 37 33

GFSWCAN_500_spd_156.txt.gz
Wind_Speed
42 43 45 47 50 54 56 54 44 40 41 43 43 42 38 39 44 50 53 56 49 42 34 32 27 22 17 15 12 11 10 12 15 15 12 9 8 9 9 10 11 9 8 7 8 6 4 10 12 13 17 18 14 17
39 44 48 46 49 48 50 48 42 44 38 41 41 45 33 42 50 50 53 53 46 43 35 35 30 25 21 17 15 13 12 10 13 14 13 12 10 6 7 8 7 8 8 6 5 5 6 9 13 15 15 17 18 17
39 43 46 47 54 52 50 45 46 46 42 42 42 40 37 38 50 51 51 48 46 39 37 36 33 28 23 21 18 16 14 13 11 13 14 10 10 9 8 4 6 5 4 5 4 5 7 7 10 17 20 20 20 19
39 41 43 44 54 53 54 48 49 51 48 44 41 40 32 36 43 51 51 49 46 38 38 37 35 31 26 23 22 21 18 17 16 14 13 13 9 9 8 9 8 4 2 0 2 3 5 7 8 10 16 18 20 18
39 39 41 43 53 59 56 52 49 48 50 42 36 36 34 37 41 45 48 51 43 40 38 36 35 33 29 26 24 23 23 22 21 19 19 15 15 9 8 9 7 7 4 3 6 6 6 6 7 8 10 12 15 17
37 38 36 43 43 59 54 55 51 51 48 41 37 42 34 39 40 44 49 45 43 40 40 39 35 34 31 30 29 28 28 27 27 24 23 21 21 15 9 11 14 8 5 4 4 7 9 9 8 9 10 12 14 15
36 36 33 41 47 49 52 53 50 52 50 47 37 37 33 32 34 39 41 47 47 45 43 42 40 38 35 34 30 30 32 32 30 29 24 22 23 22 11 14 16 2 4 8 8 8 9 10 11 11 12 13 14 15
35 36 34 40 46 50 51 49 51 48 50 45 39 37 32 48 40 35 36 43 47 49 48 49 46 41 40 38 37 36 34 37 35 31 26 26 24 22 10 21 18 14 9 10 10 10 11 11 12 12 12 13 14 15
33 35 35 38 39 46 49 48 47 46 47 42 40 36 35 44 45 37 33 34 41 50 48 50 46 43 43 41 39 38 37 35 37 32 30 27 19 18 22 22 15 14 14 11 10 12 14 14 14 14 15 15 16 17
31 33 35 35 43 38 47 46 46 48 47 44 44 42 37 42 44 44 41 37 39 41 43 42 42 44 42 42 45 44 41 38 34 32 30 23 15 23 21 17 18 16 13 12 11 11 11 12 11 11 13 14 16 17
30 31 34 35 38 42 38 46 44 43 46 44 48 42 32 35 36 36 38 39 39 36 35 31 33 35 39 42 42 39 39 39 36 31 30 19 20 23 18 17 18 17 15 14 13 13 13 13 15 16 17 18 19 20
27 29 31 34 36 39 42 39 45 42 46 44 46 44 34 35 41 36 37 41 40 38 35 30 28 28 29 31 33 33 35 36 34 28 28 20 26 23 21 20 19 19 19 18 16 16 17 17 18 19 20 21 23 24
26 28 29 31 34 36 38 42 41 43 43 45 45 48 44 41 47 42 36 38 41 39 36 32 30 30 27 28 30 31 34 35 33 30 27 22 26 23 23 23 22 22 21 20 19 20 20 21 22 23 24 24 24 25
24 26 28 30 32 37 41 42 43 42 42 45 46 47 51 44 44 44 38 35 34 35 37 36 33 31 28 25 27 30 33 34 34 30 23 24 24 24 23 22 22 23 22 22 23 24 25 25 26 26 27 27 27 30
22 24 26 28 30 33 36 40 43 45 46 47 49 51 54 55 46 43 43 40 38 38 40 39 36 35 32 31 30 28 29 32 34 27 25 26 24 25 25 26 27 25 26 27 27 28 29 29 30 31 32 32 34 36
22 23 24 25 28 31 34 37 40 45 47 49 52 50 52 53 55 51 47 46 46 43 39 39 40 40 39 36 35 32 31 31 31 29 29 28 25 25 25 26 28 29 29 30 31 32 32 34 35 36 37 38 40 42
25 25 25 26 27 29 32 36 39 41 45 48 50 52 54 51 51 54 57 54 51 50 47 44 43 41 41 42 40 38 36 36 36 35 35 34 34 32 31 32 33 32 33 34 36 38 39 40 41 41 42 43 46 47
29 28 27 28 29 30 31 33 36 38 40 43 47 50 54 55 55 53 50 51 51 49 49 48 46 46 45 44 43 42 42 42 42 41 41 42 41 40 38 37 38 39 39 40 42 43 44 45 45 45 46 48 50 51
34 32 32 31 31 30 31 33 34 36 38 40 43 47 50 52 53 53 55 53 51 50 48 47 48 47 46 47 48 48 48 47 46 46 45 46 46 46 45 44 44 44 45 46 47 49 50 50 50 50 52 52 53 53
38 37 37 35 34 33 32 32 33 34 36 38 40 42 46 49 52 53 54 54 51 50 50 48 47 47 48 48 49 50 51 52 52 51 51 50 50 50 50 50 50 50 51 51 54 56 55 55 55 54 52 51 50 49
34 38 39 39 38 37 35 33 33 34 35 36 38 40 42 45 48 52 55 57 57 55 52 46 44 47 50 51 52 52 51 50 52 53 53 54 53 52 53 54 54 55 55 55 55 54 54 52 51 50 50 51 52 54
16 25 37 39 39 38 36 34 33 33 34 35 37 40 42 44 46 48 50 51 53 56 61 62 59 55 53 54 55 55 54 53 52 51 50 49 50 51 51 51 51 51 51 51 50 49 50 53 55 56 57 57 58 60
16 14 18 31 36 37 35 34 32 32 31 32 33 36 39 42 44 46 46 45 46 50 54 56 60 66 66 65 62 59 59 59 59 59 58 57 56 54 53 52 53 54 54 54 55 57 58 61 62 63 64 65 67 68
19 14 12 17 28 33 35 34 33 30 30 30 31 33 34 37 40 40 40 41 46 49 49 49 50 51 52 56 57 56 54 56 56 57 57 57 56 54 55 56 57 57 58 59 60 62 64 65 67 69 70 68 65 64
11 12 14 12 18 25 29 31 32 30 30 30 30 30 31 33 33 35 36 38 42 43 44 46 49 49 49 49 49 50 51 51 51 51 52 53 52 53 53 54 55 57 58 58 59 60 61 61 61 61 61 60 60 59
14 11 8 8 10 14 20 24 26 27 28 28 27 27 28 29 29 29 28 31 33 35 38 42 44 44 46 46 47 48 49 51 51 51 52 52 53 53 55 55 56 58 58 58 58 58 58 57 57 58 57 57 56 55
16 13 11 9 11 14 15 18 21 23 24 23 23 25 26 26 25 25 26 28 29 30 30 32 34 35 36 38 38 40 42 44 45 46 46 47 49 51 53 54 55 55 56 56 57 57 56 56 55 53 51 50 48 46
10 7 6 5 5 6 9 13 16 18 20 21 22 23 23 22 23 24 24 25 27 26 27 28 27 28 29 31 32 34 35 36 37 38 39 41 43 45 46 46 47 48 49 50 49 47 45 42 39 38 38 37 36 33
7 7 6 5 2 1 4 7 9 12 15 16 17 18 16 18 19 19 19 20 22 22 24 25 26 27 26 25 26 26 22 24 26 28 29 31 31 34 36 35 34 34 33 32 30 29 27 25 24 22 21 20 21 25
3 3 3 4 4 2 3 4 6 8 9 10 12 13 13 14 16 17 18 17 16 15 16 16 14 13 13 16 19 16 16 16 14 15 16 16 13 13 14 14 13 12 11 11 12 12 13 16 18 21 24 26 29 31
7 7 6 5 5 5 5 4 4 6 8 10 13 13 14 14 15 15 14 14 12 11 11 10 10 11 11 12 14 14 15 17 18 16 15 15 16 17 17 16 16 17 18 19 20 21 23 24 24 25 27 29 31 33
20 20 19 18 17 15 13 12 10 7 6 6 7 12 13 10 8 6 8 10 11 9 6 7 9 10 11 10 10 9 11 13 15 16 16 16 17 17 16 16 17 17 18 19 21 23 25 26 28 29 31 32 33 36
24 25 26 26 26 25 24 22 20 17 15 11 8 6 6 8 10 10 9 9 9 8 7 7 8 10 10 9 9 10 10 11 12 13 14 15 16 17 19 19 20 22 23 24 25 27 29 30 32 34 36 38 39 40

GFSWCAN_500_spd_159.txt.gz
Wind_Speed
27 21 24 31 35 41 38 47 54 62 41 40 38 43 43 49 49 47 42 39 40 49 47 42 39 39 29 25 18 17 14 13 12 14 16 15 11 8 9 11 12 13 11 10 9 7 5 6 8 7 11 17 16 14
36 32 24 34 44 39 45 50 55 55 38 37 31 38 43 42 43 43 42 37 39 46 52 48 45 44 32 28 22 18 16 13 11 11 14 13 14 11 7 7 10 9 10 8 7 7 6 7 8 10 8 10 9 11
40 33 27 35 47 39 42 53 48 52 40 45 38 35 38 39 37 45 40 37 39 45 49 52 50 44 33 31 27 20 18 16 14 12 11 13 13 11 10 9 4 6 6 7 6 5 8 5 8 10 11 10 10 10
44 45 37 35 47 42 51 47 49 54 57 46 42 34 35 33 32 34 31 37 39 42 48 48 45 43 37 33 30 25 21 19 17 15 14 14 15 14 11 10 9 7 1 2 3 5 6 7 6 9 12 12 11 11
56 51 41 39 45 47 41 45 44 47 51 47 38 41 35 34 30 35 32 36 43 42 45 44 42 39 37 35 32 29 24 21 20 18 17 16 17 15 15 13 12 9 6 1 3 2 6 7 9 9 11 14 16 14
34 53 43 39 41 44 45 53 48 53 57 50 37 42 33 32 30 28 30 30 35 46 45 44 42 41 38 36 34 32 27 25 24 22 20 20 21 17 12 12 18 20 5 6 2 10 8 8 11 10 11 12 13 14
32 39 37 36 40 42 45 50 45 43 54 47 47 36 31 30 26 25 27 30 32 41 44 44 42 40 38 36 34 32 30 29 29 28 25 23 24 20 11 15 21 7 4 6 5 6 6 9 12 11 11 12 13 14
30 32 33 35 40 42 49 55 47 46 46 46 43 43 30 29 35 31 27 34 36 38 40 42 44 39 36 35 35 35 35 34 31 30 29 29 25 21 14 23 21 17 13 11 12 12 11 11 12 12 13 14 15 15
29 30 33 34 36 39 46 56 58 52 48 45 42 39 38 36 34 30 29 27 31 38 40 42 39 37 40 39 40 39 39 38 36 32 32 30 24 20 25 19 19 17 15 15 14 16 16 14 14 14 15 16 16 16
27 29 31 33 32 36 42 41 55 57 53 52 50 46 34 37 39 32 35 40 34 35 37 40 40 44 41 42 42 43 44 43 39 32 32 28 18 25 28 19 17 18 19 16 15 13 12 13 14 15 15 14 14 14
27 28 30 32 31 37 37 40 48 49 51 51 51 51 49 38 38 34 35 41 41 33 32 31 33 37 40 40 41 43 43 42 41 37 36 27 20 28 24 18 17 20 19 17 16 16 16 14 13 12 12 12 13 14
25 27 29 30 31 36 35 42 41 45 41 49 51 45 44 36 40 40 40 38 39 36 29 24 27 30 32 33 34 35 38 39 41 33 32 27 26 27 23 20 19 20 21 20 20 19 17 16 16 16 16 16 16 17
25 27 29 30 32 33 39 39 44 40 42 43 43 43 45 40 42 39 38 39 35 34 28 27 28 29 28 27 26 26 29 33 31 29 27 22 27 25 23 23 22 22 23 22 21 19 18 18 18 17 19 21 24 25
25 27 28 30 33 33 41 38 43 43 42 44 45 43 41 45 49 35 33 35 30 27 27 28 26 25 25 25 25 24 24 28 30 27 20 22 24 25 24 24 24 24 24 26 27 26 24 23 21 22 25 27 28 28
24 26 28 30 32 34 36 42 38 43 44 43 43 43 43 40 41 35 32 34 36 29 27 28 28 27 26 28 28 26 23 23 22 18 19 24 25 26 25 25 24 24 24 23 22 22 23 23 25 26 28 29 30 32
23 25 26 28 31 32 34 38 41 40 45 48 45 43 43 41 43 41 35 30 33 36 34 32 30 28 27 30 29 29 28 25 19 17 17 20 24 25 25 25 25 25 26 26 26 26 26 27 28 29 30 32 34 36
22 24 25 27 29 32 33 35 39 42 44 46 48 46 44 43 42 42 44 45 39 34 34 34 33 31 30 29 30 31 30 27 26 24 23 23 23 24 25 25 25 26 26 27 28 29 30 32 32 33 34 36 37 39
22 22 23 24 26 28 30 32 35 38 41 43 46 50 48 44 46 47 47 47 47 48 43 39 36 35 35 33 30 29 29 31 32 32 31 30 30 30 29 29 29 30 32 32 34 35 37 37 38 39 40 41 42 45
23 23 23 23 24 25 27 29 31 33 35 40 45 48 49 52 51 48 46 46 47 47 47 46 46 45 42 39 37 36 34 33 34 35 37 37 37 37 37 37 36 36 37 37 38 39 41 42 43 44 46 48 49 50
27 27 27 26 26 26 26 28 29 31 33 36 39 43 47 49 49 51 51 50 48 47 46 46 45 44 44 45 44 43 44 42 40 40 41 41 41 41 41 41 41 40 39 40 42 43 45 46 47 48 51 54 54 54
26 31 32 31 29 28 27 27 29 31 33 34 35 38 40 44 47 49 50 50 50 51 51 51 50 49 48 47 46 46 45 45 43 42 40 40 42 42 43 44 46 48 48 48 47 47 46 48 51 53 53 53 55 55
19 25 29 33 33 34 32 31 30 30 32 34 35 36 37 39 41 43 45 46 46 46 48 50 49 48 48 47 47 47 46 45 45 45 44 44 44 45 45 46 45 46 46 47 48 49 51 53 54 54 54 54 55 56
19 17 18 25 32 34 35 35 33 32 31 31 33 35 37 39 40 40 40 41 42 46 47 48 49 49 49 49 49 50 51 50 49 49 50 50 50 49 49 50 51 51 52 55 55 55 57 57 57 57 58 58 59 60
18 10 7 9 16 26 34 34 35 33 31 30 31 31 33 35 36 37 38 41 44 44 43 43 44 46 49 53 57 58 59 59 59 60 61 60 58 58 58 60 60 60 60 59 59 59 59 59 59 59 60 60 61 62
13 14 11 9 12 13 24 32 33 32 30 29 29 29 29 29 30 32 34 37 39 41 42 43 44 44 44 47 49 51 53 54 55 57 60 60 60 61 62 62 61 61 60 59 60 60 60 60 60 59 59 59 59 59
11 7 9 13 13 12 15 22 27 29 30 29 27 26 26 26 28 29 29 32 34 36 38 40 42 44 45 46 47 49 50 51 52 54 54 54 54 54 55 54 55 56 55 56 56 56 56 55 55 56 56 56 57 56
9 5 6 7 10 12 14 18 20 22 24 25 26 27 27 27 26 26 27 29 30 31 32 34 37 39 41 43 45 46 47 49 50 50 50 51 52 52 52 52 51 52 52 51 52 52 52 53 53 52 51 49 47 46
13 10 6 8 9 10 10 11 13 16 19 21 22 24 24 25 26 28 28 27 28 28 28 30 31 32 33 34 36 37 38 39 40 41 42 43 44 44 44 43 43 42 43 43 43 44 44 43 42 42 41 40 38 37
8 6 5 5 4 2 4 7 10 13 15 17 19 21 22 24 24 25 25 26 28 28 29 30 30 30 30 30 30 30 29 28 28 29 29 29 28 28 29 28 28 30 31 29 29 29 29 27 24 21 20 21 21 21
4 5 6 5 4 3 2 1 3 6 9 11 13 15 16 17 17 19 21 21 20 20 22 22 22 21 21 21 19 18 17 16 17 17 17 18 19 21 21 20 16 15 15 15 15 15 15 15 17 18 19 21 23 25
6 5 5 5 4 4 4 4 4 4 6 8 10 10 11 12 12 14 15 15 15 16 16 15 14 13 12 12 12 14 13 13 16 17 18 17 17 16 15 15 16 18 19 17 16 16 17 19 20 22 24 25 27 29
18 18 17 16 15 14 12 10 9 10 9 8 8 10 10 10 11 11 10 11 11 10 9 10 11 10 9 9 10 11 12 13 15 17 18 18 17 16 18 19 18 17 17 17 19 21 23 25 27 29 30 31 32 34
22 23 24 24 24 24 22 21 20 19 17 16 13 10 8 7 7 9 8 8 10 11 11 10 8 8 9 9 11 12 12 13 14 14 15 15 15 15 15 16 17 19 21 22 24 25 27 30 31 33 34 36 39 40